GFSSE_prec_cthk_000.txt.gz
RH
71 72 71 65 59 61 59 54 48 43 45 46 43 38 35 31 27 22 16 15 14 13 13 12 10 9 8 9 9 9 8 10 10 13 14 17 27 35 37 37 41 44 49
71 63 63 60 59 59 54 50 45 43 45 43 39 35 28 23 20 14 12 11 11 13 12 11 9 8 8 8 9 10 11 13 14 16 16 17 21 31 34 38 38 38 38
70 63 61 61 62 58 54 45 43 44 43 37 33 27 22 18 13 10 10 12 14 13 13 12 13 13 12 12 11 11 11 14 15 19 19 19 21 26 36 40 41 39 36
70 64 60 63 60 56 45 44 44 41 36 30 26 23 16 12 8 9 12 16 16 16 16 17 17 18 18 18 17 18 18 18 18 19 21 24 24 27 39 34 35 38 48
58 63 64 61 54 46 42 42 36 32 27 25 21 16 11 9 9 12 16 17 18 18 19 20 21 22 23 23 24 24 23 22 21 22 24 26 29 31 35 34 31 38 46
63 64 64 56 44 41 39 32 26 25 22 20 14 9 10 10 14 17 19 20 20 21 23 25 26 26 25 24 24 25 26 26 25 24 25 26 30 33 37 43 33 33 38
63 61 57 44 39 35 25 23 22 21 17 12 8 12 15 17 21 21 23 24 26 28 27 27 26 25 25 26 25 25 26 26 26 27 27 28 31 31 31 32 29 30 37
59 52 44 37 26 21 22 20 17 13 10 9 14 18 22 24 25 26 28 28 28 29 28 29 28 27 28 28 28 27 26 27 28 29 31 33 34 34 31 33 32 42 47
44 31 23 22 21 20 17 14 9 9 12 17 21 26 28 29 29 29 30 32 31 33 35 34 35 33 33 32 32 31 30 28 27 28 30 33 33 35 35 38 39 39 46
23 23 21 18 14 10 10 9 10 15 19 24 29 31 31 31 31 32 32 32 35 37 40 41 42 40 38 37 37 36 34 33 31 29 28 27 30 34 35 37 39 42 41
21 17 13 11 10 10 12 15 19 23 27 31 33 34 33 33 33 31 34 35 36 40 43 45 46 46 44 45 43 43 41 37 34 31 29 28 28 28 31 34 37 36 34
15 14 14 14 13 16 20 24 27 31 34 38 40 41 42 41 41 40 39 40 41 44 48 48 47 46 47 47 46 45 44 41 40 40 33 29 26 27 28 29 31 32 34
17 19 17 20 22 25 28 32 35 39 42 47 46 48 49 49 46 45 44 45 45 47 50 50 50 45 44 44 46 43 42 41 41 40 37 36 34 28 26 25 25 26 28
29 29 26 25 29 35 37 39 41 47 49 51 53 48 47 49 51 53 51 49 51 51 53 53 50 45 44 43 44 42 41 38 36 39 42 40 39 37 32 26 25 25 24
36 38 39 36 36 43 50 50 55 58 60 59 60 56 53 54 57 56 55 56 60 58 56 53 48 45 44 43 40 40 38 39 37 37 36 36 38 39 38 32 30 27 27
42 48 50 51 45 45 53 56 65 71 71 70 71 65 63 63 65 63 62 64 64 62 58 54 48 44 44 43 40 39 38 37 36 37 36 33 33 34 33 32 27 24 23
49 49 50 52 52 56 62 69 85 92 87 82 82 76 76 74 70 68 69 70 68 61 57 51 45 40 38 35 33 32 33 32 31 31 32 33 33 34 34 34 30 25 22
49 53 55 61 74 77 88 89 91 88 88 85 81 76 79 77 74 74 72 69 61 52 47 44 41 38 36 32 30 29 30 30 28 28 27 28 29 30 32 33 31 28 29
62 61 61 70 82 85 89 91 91 82 82 81 83 82 80 79 76 68 64 60 57 48 41 38 37 34 30 29 30 31 33 31 28 27 27 26 27 30 31 32 32 32 29
59 62 70 82 91 92 89 85 78 76 75 83 86 82 76 69 65 67 65 53 43 40 40 39 36 35 34 33 34 34 33 34 32 32 31 31 31 32 34 35 35 36 36
67 75 81 85 87 74 71 74 71 75 84 83 75 68 64 62 59 51 44 41 42 42 41 40 41 39 37 35 35 35 37 39 39 37 37 36 34 36 37 37 39 40 42
75 77 74 68 67 70 69 70 72 66 62 61 60 60 58 51 44 41 42 44 45 43 43 43 41 40 40 37 37 37 35 32 29 27 25 24 28 30 35 41 41 41 40
64 56 52 55 56 57 56 56 58 58 59 59 56 52 47 45 46 47 47 46 46 48 48 49 44 41 39 41 37 34 32 32 28 22 20 19 21 22 22 24 28 35 40
48 51 58 57 55 57 59 62 63 62 58 54 52 50 50 51 52 54 53 48 47 50 49 43 38 33 33 33 31 31 34 39 40 34 30 25 23 23 23 23 26 28 30
60 57 56 54 56 56 56 57 55 52 51 52 52 51 52 53 51 48 45 44 40 41 38 34 34 37 37 35 34 33 33 36 43 50 41 39 34 28 30 27 28 29 31
60 58 58 60 58 52 52 51 53 54 55 54 52 50 51 49 46 40 37 36 35 36 38 42 41 41 36 37 37 40 37 40 39 40 41 38 34 23 26 33 37 36 41

GFSSE_prec_cthk_003.txt.gz
RH
76 74 72 77 67 61 60 58 50 43 41 38 35 33 29 26 24 19 16 14 13 13 11 10 8 8 7 6 6 8 8 9 10 11 12 15 23 32 36 39 40 37 35
76 75 69 66 68 69 64 59 50 44 42 38 36 29 25 20 17 13 12 14 14 13 12 11 12 12 11 10 10 9 9 11 13 15 15 16 20 29 38 42 39 38 37
80 70 69 71 71 69 66 58 47 44 42 37 29 24 20 15 10 11 14 16 15 14 15 16 17 17 18 17 16 16 17 17 16 17 20 22 22 26 30 43 49 35 30
72 68 70 72 77 71 65 51 46 43 37 29 23 19 15 9 10 14 16 16 17 17 18 18 18 19 20 20 21 21 21 20 20 20 23 28 31 31 40 45 52 33 32
71 71 68 76 76 69 54 48 43 35 28 23 19 13 10 10 14 17 18 19 19 20 20 21 22 22 21 21 22 22 22 23 23 22 22 25 33 38 48 51 45 41 38
73 77 78 76 74 58 49 43 31 27 25 19 11 10 12 15 19 20 21 23 24 25 25 24 23 23 23 23 22 22 22 22 24 25 25 23 25 30 43 46 52 51 37
75 73 78 76 65 50 43 31 28 26 19 10 10 16 17 21 22 24 27 27 27 26 27 26 26 26 27 28 27 27 26 24 24 26 28 28 29 29 27 28 34 34 36
68 72 69 62 50 36 28 29 24 17 11 10 18 21 23 25 26 28 30 30 30 30 32 31 33 31 31 32 31 30 29 28 26 25 25 27 29 30 31 29 32 31 36
62 57 52 39 29 29 28 21 13 11 15 20 23 27 26 28 30 31 32 31 31 33 36 35 36 36 35 36 36 35 34 33 31 30 27 26 25 27 30 31 35 40 42
45 34 29 28 28 22 16 13 13 20 22 26 29 31 30 31 32 32 33 36 38 39 42 40 40 40 39 38 38 37 36 37 36 33 32 29 28 27 26 29 34 37 39
29 27 23 19 16 14 16 20 24 26 29 32 35 35 36 37 37 41 43 42 43 43 44 43 45 46 43 41 39 39 38 36 34 36 36 33 30 27 27 27 28 31 34
24 19 19 19 19 22 27 29 30 31 35 39 41 40 40 43 46 49 48 46 47 48 46 46 48 48 44 41 40 38 36 35 33 32 35 36 34 31 27 25 25 25 27
18 19 20 21 25 29 31 34 38 38 45 46 47 46 45 48 53 54 52 51 53 49 50 52 51 48 43 38 38 39 37 33 31 32 32 32 35 38 34 29 26 24 23
29 27 27 30 32 36 40 44 44 47 53 57 53 54 58 61 60 61 60 57 52 53 56 57 55 52 46 40 37 36 34 30 30 31 32 33 33 33 33 35 33 29 25
38 38 36 37 44 45 48 51 54 59 64 75 78 74 71 73 69 68 69 62 59 62 65 60 54 50 44 39 38 35 31 28 26 25 24 25 26 27 29 28 28 28 27
46 47 45 42 44 48 49 49 54 63 72 84 91 93 93 91 85 79 74 70 71 69 65 59 51 46 40 35 31 29 28 26 26 26 25 24 22 23 25 25 26 27 28
52 53 53 53 55 60 65 72 71 72 74 74 78 87 92 90 88 83 80 74 71 68 55 50 46 37 32 29 29 27 26 26 26 25 24 23 22 21 21 22 22 24 26
59 59 60 61 67 74 82 86 87 77 70 74 81 85 85 84 86 84 74 66 59 55 53 47 35 32 31 30 29 28 29 27 26 25 25 25 25 24 23 21 21 21 22
60 63 67 75 80 84 88 78 75 69 66 67 70 71 75 78 75 69 63 58 54 47 37 35 34 33 31 31 31 31 30 29 29 28 27 27 28 27 26 24 24 26 26
59 63 70 81 86 81 72 67 68 61 61 64 66 67 66 66 63 58 52 44 39 37 37 37 37 35 34 34 32 31 30 28 28 29 29 28 27 28 27 27 27 28 28
65 72 81 82 76 62 58 57 57 59 58 57 53 53 52 52 49 46 44 44 44 43 43 43 41 40 40 37 36 36 31 27 27 30 26 25 21 19 19 20 20 21 25
80 79 67 54 51 55 58 56 57 54 50 50 52 51 49 47 47 48 47 47 47 47 47 46 43 38 35 30 28 29 26 25 26 22 25 23 21 18 19 19 18 17 16
57 57 54 53 55 53 50 52 51 52 51 50 49 48 48 49 47 47 48 48 48 47 44 38 35 31 31 28 26 28 30 30 34 28 28 28 29 28 28 25 21 18 17
60 56 56 58 55 56 56 52 51 53 54 53 54 55 54 51 50 48 48 46 42 38 35 33 29 29 30 32 33 33 31 38 40 34 34 33 31 30 29 29 27 22 20
57 63 61 56 60 58 59 57 58 57 57 55 57 57 54 51 46 42 39 34 29 27 27 26 27 28 38 41 42 42 41 44 48 48 38 34 36 35 35 33 28 25 22
64 58 52 57 61 64 67 69 66 62 58 58 57 52 47 43 37 32 26 24 24 27 34 42 41 48 43 42 43 40 40 50 53 59 48 48 43 40 40 37 33 28 23

GFSSE_prec_cthk_006.txt.gz
RH
73 78 76 74 70 66 63 63 54 48 44 39 34 29 25 23 17 12 12 12 14 13 10 11 12 12 11 11 10 10 9 10 13 15 14 14 18 24 28 33 38 37 31
79 80 79 76 68 67 67 63 55 49 44 37 32 26 22 16 11 11 13 15 13 13 14 15 16 16 17 16 14 14 14 14 14 15 20 22 21 26 27 31 36 39 32
80 82 81 73 72 73 72 64 55 48 43 36 27 22 16 11 10 14 15 15 15 16 17 17 17 18 19 19 19 19 19 18 17 17 20 31 37 26 28 35 38 44 37
84 85 76 73 80 78 75 65 52 50 38 30 24 18 12 10 14 16 16 17 18 19 19 20 20 21 21 19 19 19 19 20 20 19 28 31 41 30 30 38 47 50 37
89 84 76 74 80 81 75 62 55 44 31 26 18 13 10 14 18 18 19 20 21 21 22 23 22 22 22 22 21 21 21 20 21 29 32 26 37 38 39 45 48 45 42
93 84 78 77 84 87 70 57 44 31 28 20 12 10 14 20 20 20 22 23 23 24 25 24 25 26 26 26 25 24 24 22 24 30 33 33 36 28 29 34 37 39 42
97 85 85 85 90 79 62 50 33 30 23 11 12 17 20 22 23 24 26 27 28 28 29 29 31 31 30 30 30 29 28 26 28 28 26 28 28 30 31 30 30 27 31
93 91 90 88 82 68 55 36 31 23 15 12 20 22 24 24 28 29 29 28 30 31 33 35 35 35 33 33 33 31 31 30 35 34 33 32 24 25 29 33 36 38 35
84 87 92 81 64 49 37 32 23 16 16 20 24 27 27 30 31 32 31 32 32 37 40 41 40 41 38 37 38 35 33 33 37 38 37 35 29 26 26 28 34 39 38
83 78 72 61 48 49 32 22 16 19 22 27 29 30 33 35 36 35 38 38 39 42 44 44 43 42 41 39 38 35 35 40 42 42 44 38 31 30 29 27 28 28 30
68 53 46 47 45 38 31 20 23 24 28 32 37 38 39 45 46 47 44 44 48 49 47 45 45 45 43 45 38 35 38 42 38 41 44 37 32 33 32 31 28 26 26
41 39 31 27 34 31 32 29 28 32 41 42 44 43 48 47 49 45 48 48 53 52 50 47 47 48 51 52 48 41 39 36 37 34 37 33 33 31 31 34 32 28 27
36 31 27 25 22 29 32 34 36 39 42 44 45 48 51 53 57 60 60 62 65 58 58 55 55 56 48 47 44 39 36 35 33 33 30 27 29 31 32 33 33 31 33
28 27 23 28 31 32 38 39 38 44 48 47 50 55 59 65 70 74 74 73 68 65 63 63 59 54 50 45 40 36 32 30 28 26 28 23 23 23 25 26 28 29 30
35 34 33 34 34 36 42 46 52 56 58 62 70 73 74 76 80 85 86 84 75 72 68 67 62 55 49 45 40 34 30 27 23 23 26 22 20 21 21 21 22 24 26
42 35 37 41 44 52 53 56 61 65 66 74 80 82 84 82 85 88 91 88 83 78 70 65 56 50 47 40 34 30 27 25 24 25 26 28 22 19 18 18 18 18 19
49 48 43 47 50 54 62 69 76 74 79 82 75 73 80 80 78 83 89 86 80 72 65 55 49 44 37 37 35 31 29 30 28 30 28 28 29 25 22 21 20 20 20
55 57 58 60 69 75 78 79 83 74 71 75 72 72 73 77 83 82 80 71 66 59 51 45 40 37 37 37 35 34 35 33 32 33 33 28 28 29 31 25 23 22 21
59 61 64 66 71 80 85 67 67 71 74 74 70 67 68 67 65 64 60 54 49 47 44 42 42 41 40 39 35 34 34 35 33 34 38 35 32 30 27 31 22 20 20
65 68 68 74 79 74 60 57 58 58 59 57 55 51 50 51 51 50 48 46 46 47 46 44 43 43 43 42 37 35 37 34 33 35 39 37 33 31 28 27 27 26 21
64 66 72 78 66 58 53 51 50 49 51 50 46 43 44 46 46 47 47 46 46 46 46 46 46 46 45 43 35 32 30 29 36 37 41 37 34 32 30 28 27 27 25
71 77 76 64 61 55 54 54 52 52 47 45 48 49 52 53 53 54 53 52 49 48 49 49 46 41 37 40 38 32 29 27 30 40 37 33 33 38 32 28 29 26 22
73 67 63 63 55 53 53 46 48 49 52 55 59 59 56 55 56 54 52 49 46 46 45 41 35 32 33 34 40 36 31 28 30 30 35 34 37 35 34 31 31 30 27
57 57 56 55 54 49 46 49 54 59 63 64 67 64 63 58 52 48 47 44 41 36 32 36 33 31 33 31 32 35 38 36 39 37 39 45 42 42 45 41 45 38 35
54 53 51 53 50 49 52 56 58 61 63 62 61 60 54 50 47 44 42 36 32 31 37 33 35 35 38 38 43 43 42 42 42 45 42 45 47 48 46 46 46 46 42
54 50 51 50 51 55 59 62 62 61 60 59 55 47 44 41 37 34 32 32 32 34 36 35 37 46 50 55 50 43 43 49 52 52 51 46 44 42 53 48 47 47 48

GFSSE_prec_cthk_009.txt.gz
RH
73 70 63 64 63 61 64 60 58 55 48 39 33 28 25 19 12 11 13 15 13 11 13 14 14 15 14 13 12 12 12 12 13 16 16 15 15 18 23 27 35 40 35
77 68 69 70 67 70 63 63 60 57 48 38 32 25 20 13 10 13 15 14 14 14 15 15 15 16 17 17 17 18 17 16 16 17 22 31 36 27 22 25 31 35 39
78 74 76 72 74 70 70 67 62 59 47 36 26 20 14 10 12 15 15 15 16 16 17 17 18 18 19 18 17 17 17 18 18 22 27 45 48 33 25 26 31 38 45
83 80 80 78 74 74 76 73 68 62 46 31 23 15 11 12 16 16 17 18 19 19 19 20 20 20 21 20 20 19 18 19 23 27 36 32 50 37 32 31 34 41 45
87 85 86 81 78 83 82 79 71 58 43 25 18 13 11 18 18 19 21 21 22 23 24 24 24 24 25 25 24 24 23 25 28 34 36 28 40 30 27 31 35 37 38
91 93 84 89 88 86 87 77 69 52 33 22 13 10 16 20 21 22 23 24 25 27 28 28 30 32 32 30 27 26 26 27 29 31 33 34 28 25 26 26 26 27 30
94 90 87 94 91 86 84 78 63 39 28 14 12 16 20 22 23 24 26 26 28 30 29 31 35 37 36 34 31 31 29 30 33 36 34 33 23 23 24 26 29 33 33
96 94 88 90 85 89 85 70 46 33 19 11 17 19 23 24 28 28 27 29 30 31 34 36 37 40 38 37 34 33 34 34 40 41 39 34 27 26 25 25 27 30 35
91 92 94 88 93 87 77 53 33 25 13 15 19 22 26 29 29 30 30 31 35 37 38 40 41 43 42 40 37 33 34 37 37 44 47 40 31 30 29 27 25 25 27
98 88 87 94 82 64 46 35 25 17 14 19 25 27 29 29 31 32 34 35 40 42 44 44 46 45 43 49 48 43 36 39 38 44 44 41 33 31 30 31 30 28 25
93 89 77 72 67 60 66 26 14 15 18 24 31 32 36 50 46 48 42 41 42 44 46 47 48 49 51 56 51 46 41 40 37 39 39 34 27 31 32 32 30 30 30
69 68 53 48 45 49 44 22 27 27 37 42 46 41 54 49 49 46 52 49 53 52 52 57 57 59 59 57 54 48 44 39 38 37 34 30 26 26 28 29 31 32 30
44 35 35 31 35 38 36 36 38 37 40 45 46 50 56 56 60 64 64 73 77 77 74 68 67 69 62 54 49 46 42 37 36 35 32 28 25 25 25 25 26 28 30
32 30 25 30 33 37 37 41 42 50 52 55 57 56 62 65 64 68 74 78 86 88 81 78 78 69 61 55 47 45 38 35 33 31 32 29 26 24 22 20 21 21 23
34 31 34 37 35 40 46 49 53 59 63 65 70 75 80 78 76 78 83 78 81 85 85 83 77 68 60 51 46 42 36 33 33 31 30 27 26 23 21 19 17 18 18
46 42 41 42 45 50 55 57 60 61 65 72 74 79 78 81 78 76 76 79 84 87 86 78 68 61 54 49 43 40 37 37 37 34 31 31 28 29 26 23 21 21 21
44 42 44 48 53 56 65 70 73 71 71 70 69 73 77 79 78 81 83 81 85 78 67 56 51 49 48 47 45 43 38 35 34 34 37 40 42 38 38 35 30 23 23
50 50 50 57 63 67 71 78 79 65 58 60 61 63 66 68 70 67 65 70 62 53 49 47 48 48 47 47 44 38 36 34 35 38 40 44 48 47 44 40 39 34 23
60 63 65 68 65 70 82 73 59 54 57 59 58 59 51 49 49 47 48 47 45 47 48 48 46 45 43 41 38 41 40 33 37 37 34 38 50 51 52 43 40 35 27
67 68 70 71 77 84 76 60 52 55 53 50 48 46 41 43 42 46 50 48 49 52 51 50 47 46 43 45 42 44 35 35 32 34 46 49 50 50 49 49 43 41 42
70 72 75 79 81 77 65 58 54 50 44 42 43 42 44 46 49 51 54 55 56 54 53 50 49 52 46 40 41 45 42 37 36 35 41 49 50 44 45 43 42 39 37
77 78 81 82 75 64 58 58 56 49 47 44 45 47 53 56 57 58 57 57 57 53 50 49 52 50 43 40 40 42 37 32 30 33 33 34 34 42 44 44 39 36 38
75 76 75 66 59 54 55 50 45 45 47 52 55 56 58 57 57 54 52 52 51 50 46 43 44 48 41 38 37 38 37 38 36 36 33 32 33 38 44 40 38 37 41
75 72 66 59 55 51 49 47 49 53 56 58 59 58 59 59 53 48 45 44 46 45 43 41 47 48 41 43 41 40 40 40 38 35 36 37 42 43 45 43 46 44 44
65 64 61 55 50 47 46 48 51 55 61 63 60 59 56 47 41 37 34 34 35 39 42 43 50 49 45 44 43 42 38 44 44 41 39 45 47 47 49 51 53 48 50
57 58 55 51 49 49 50 52 55 60 61 66 63 61 52 43 39 33 34 35 34 38 44 51 50 45 49 49 53 50 41 43 41 46 46 43 49 49 57 54 53 55 52

GFSSE_prec_cthk_012.txt.gz
RH
71 65 61 61 60 60 58 54 55 53 50 41 34 27 20 13 10 12 13 12 12 14 14 14 15 15 15 16 17 16 15 14 16 19 25 30 32 30 23 22 28 30 30
76 65 61 65 64 64 60 61 59 58 53 42 32 24 16 10 11 14 12 14 15 14 15 16 16 16 16 16 16 15 16 16 23 30 36 43 50 37 27 21 24 27 32
83 71 68 69 70 68 69 68 63 60 54 42 30 19 13 11 14 14 14 16 16 17 17 18 19 19 19 18 18 18 22 24 28 32 39 55 53 40 30 25 26 29 35
81 76 74 73 75 75 76 72 70 65 53 39 25 15 13 14 15 16 18 19 19 20 21 21 23 23 23 24 24 22 24 26 32 35 34 46 37 31 28 30 31 32 33
86 83 79 77 80 85 81 79 76 70 52 36 18 12 13 16 18 20 21 22 23 24 24 25 26 27 31 31 29 26 26 28 28 31 27 26 26 21 23 25 26 25 27
90 89 86 86 90 90 88 85 75 61 46 29 13 10 17 19 21 21 23 24 25 26 26 27 28 32 34 34 33 31 30 33 34 36 30 30 24 21 21 23 26 30 30
89 98 96 96 96 93 96 81 71 60 38 17 10 13 20 21 23 24 24 26 27 28 29 31 31 33 34 35 34 33 30 35 36 41 35 34 32 25 23 23 24 27 30
98 95 88 98 96 99 92 74 67 46 27 10 11 17 21 24 26 25 26 27 29 31 34 34 35 38 39 43 43 37 34 31 34 42 40 39 40 28 27 26 25 25 25
96 91 93 94 87 90 77 66 50 36 17 11 15 20 23 26 28 28 28 30 33 37 39 41 40 42 44 51 48 42 38 33 31 43 40 39 37 26 29 29 28 29 27
94 98 98 91 98 82 72 52 40 25 11 14 18 24 28 30 31 32 32 33 37 43 47 49 44 44 51 55 50 47 45 38 34 37 35 35 32 26 26 29 30 29 29
89 88 97 91 81 71 62 42 23 13 12 18 26 33 37 40 43 43 43 41 45 47 51 56 60 59 57 57 54 51 49 44 37 36 31 31 30 28 25 26 27 29 30
86 87 73 77 69 54 48 25 15 18 23 32 33 41 44 48 51 52 54 50 59 60 68 75 73 69 65 63 58 51 46 42 37 37 32 30 27 27 26 25 23 23 26
67 50 39 39 39 43 33 21 23 30 33 37 40 50 55 50 59 62 62 70 72 75 83 80 78 77 72 64 57 50 44 41 38 35 32 31 30 29 27 25 23 21 21
37 35 33 34 38 36 33 36 39 42 46 47 49 58 64 62 62 63 68 72 76 78 80 81 78 76 71 65 58 50 45 41 39 38 35 31 30 29 28 25 24 20 19
33 29 28 27 31 35 40 44 47 50 57 60 70 78 76 72 70 69 71 75 76 75 76 79 76 71 67 57 46 45 46 47 43 39 37 33 31 32 31 27 25 23 22
37 38 35 33 37 44 48 53 59 64 64 70 62 64 64 67 71 74 73 72 72 70 72 74 68 56 49 47 45 44 45 42 40 38 39 37 35 36 36 35 33 30 27
43 37 36 38 45 48 54 62 68 71 59 57 54 55 62 69 68 66 61 56 52 45 58 57 48 43 42 41 40 38 37 37 37 35 35 36 39 39 43 43 39 38 36
43 41 45 48 54 61 63 71 78 65 54 56 55 53 50 50 49 46 40 38 38 40 41 43 44 43 41 40 40 37 41 39 37 30 38 38 36 43 45 45 53 42 39
52 55 61 61 63 66 67 77 70 58 55 55 47 41 40 37 36 36 39 41 43 44 47 47 46 44 39 37 38 39 39 40 35 33 35 36 41 51 55 55 51 48 47
58 61 64 62 63 69 78 68 58 50 50 44 38 37 37 36 38 41 43 43 45 49 50 49 46 44 47 49 43 37 37 39 35 34 39 39 42 44 50 50 50 50 46
63 64 63 68 70 74 78 59 49 49 44 37 37 37 39 42 44 45 47 49 48 45 42 38 38 42 42 41 39 36 34 33 33 33 34 33 36 42 44 44 43 45 43
66 69 72 71 71 70 61 54 54 51 41 39 39 42 44 45 47 51 51 46 42 39 35 36 38 37 38 42 39 35 34 34 34 33 30 30 32 34 36 39 38 39 38
69 72 72 75 70 61 50 48 48 42 42 46 47 47 49 50 55 56 47 41 37 33 33 34 37 40 42 42 40 38 36 36 36 33 29 29 29 27 27 31 38 42 41
69 73 71 71 61 53 50 46 46 46 47 48 50 55 54 55 52 45 36 33 31 29 30 34 40 41 40 39 37 34 34 36 36 34 34 30 30 33 38 39 37 39 40
66 68 69 62 53 51 48 48 47 46 48 48 53 58 58 58 50 40 37 33 30 28 29 35 41 42 39 35 33 33 34 40 41 40 34 29 28 28 34 48 46 43 42
66 62 58 53 51 49 48 46 45 47 48 48 53 58 61 49 42 36 35 32 30 32 36 41 40 37 36 38 36 44 47 45 47 42 36 33 35 33 39 46 47 46 40

GFSSE_prec_cthk_015.txt.gz
RH
83 75 67 68 71 66 61 56 53 48 45 44 36 27 19 10 9 11 11 12 14 14 15 15 15 15 14 14 14 14 18 22 25 27 30 44 49 45 30 24 22 25 30
88 86 81 75 71 62 60 59 56 53 49 45 34 23 17 11 10 11 13 14 16 16 16 16 17 17 17 17 18 19 22 28 30 28 37 46 49 34 28 23 22 23 29
78 87 81 76 72 69 66 64 61 59 50 43 32 21 17 12 11 13 15 17 17 18 18 20 21 21 20 21 24 26 27 29 31 27 29 28 29 26 27 32 28 27 30
75 76 82 77 74 73 69 68 67 62 51 43 31 20 16 12 14 15 17 19 20 20 22 23 23 24 24 27 28 29 29 27 28 28 27 29 20 19 21 23 23 23 24
78 83 85 81 78 80 78 76 72 63 53 43 28 20 16 14 16 18 19 21 23 23 24 25 25 27 28 29 30 33 35 35 30 33 33 30 26 21 19 22 24 27 27
83 85 86 83 83 87 90 85 77 66 52 40 24 21 17 17 18 20 21 23 24 24 25 27 28 30 32 32 32 33 34 38 37 35 33 35 33 25 23 22 23 26 27
86 95 94 92 90 98 96 88 78 62 48 29 19 21 18 19 20 21 23 24 26 27 29 31 32 34 39 38 36 37 35 33 36 34 35 36 37 31 24 25 25 24 23
96 96 98 96 99 98 95 85 74 56 34 20 11 18 20 22 23 24 26 27 29 32 37 38 40 42 43 43 41 43 41 36 33 31 34 33 32 29 22 26 27 27 27
96 98 99 98 93 92 88 78 60 44 26 18 18 19 22 25 27 27 28 30 34 36 39 40 47 51 53 52 49 45 42 39 37 34 35 30 29 27 25 21 24 27 28
96 98 96 96 98 81 81 69 48 35 24 17 18 24 29 29 29 30 32 33 36 39 45 51 56 60 60 61 56 53 50 47 41 36 34 31 31 29 27 23 23 25 27
97 94 87 79 89 88 67 54 37 18 13 15 23 28 33 36 37 38 39 42 47 54 54 61 67 66 65 66 60 54 50 47 40 37 35 35 33 31 29 27 25 24 23
80 78 62 65 71 65 58 37 18 14 18 24 32 35 38 42 47 49 52 57 60 66 66 68 71 71 68 69 62 59 53 49 44 38 37 36 35 35 32 30 27 24 23
67 61 64 63 47 42 33 16 18 22 27 32 37 46 53 56 54 54 55 63 70 69 69 71 71 70 70 69 63 58 51 48 43 43 43 38 36 37 35 31 30 26 24
46 46 49 41 40 34 28 28 30 32 35 39 49 58 58 54 59 58 62 67 64 63 64 65 66 70 70 67 59 48 43 41 41 40 39 42 40 36 36 35 32 30 25
39 37 37 37 38 39 39 42 41 45 50 58 59 62 65 62 61 64 64 62 62 66 62 61 61 66 66 54 41 39 38 37 36 34 35 37 38 37 39 39 37 32 30
36 33 32 39 41 42 44 45 47 59 68 62 52 49 50 56 58 58 60 62 58 50 45 42 43 41 37 38 38 35 34 32 32 33 35 33 34 36 38 40 42 42 40
36 31 31 36 38 43 45 49 56 59 54 49 46 45 45 48 51 50 48 46 36 31 30 33 36 38 38 35 35 33 34 37 38 38 38 32 35 37 37 41 43 44 42
35 34 37 40 45 49 52 57 64 63 50 49 45 43 41 40 40 36 33 32 32 35 37 38 39 38 37 37 33 35 35 36 36 36 35 34 38 41 44 44 45 45 43
41 41 49 52 56 57 55 58 62 56 48 46 45 36 34 33 32 33 35 39 41 42 42 42 42 40 34 31 35 37 33 33 34 32 31 34 37 41 42 43 43 42 43
52 53 54 53 53 56 61 66 63 50 45 43 35 31 32 35 37 40 44 45 46 45 42 39 35 30 29 31 33 32 31 31 32 30 30 31 32 36 42 44 44 41 41
51 54 53 54 55 54 56 54 46 43 39 36 34 34 36 39 42 44 48 49 45 38 35 32 30 30 30 30 30 32 31 28 27 26 24 23 24 28 32 37 38 41 42
45 52 57 58 58 57 60 56 47 41 42 39 37 40 42 45 47 48 51 49 38 33 31 30 30 29 30 32 33 33 30 25 24 25 24 24 24 23 23 26 32 36 39
46 55 63 65 61 64 64 56 51 48 45 41 40 43 46 49 49 48 50 41 31 29 29 29 29 31 33 35 34 32 31 30 27 27 27 27 26 26 27 28 25 27 32
50 58 60 60 62 63 61 56 54 52 45 42 43 44 46 45 45 46 44 40 32 28 27 26 29 32 33 34 35 35 33 34 32 30 31 34 34 32 25 21 35 40 39
57 65 69 64 61 59 55 51 51 49 46 45 46 47 46 49 47 45 48 45 37 33 31 31 35 37 37 37 37 37 38 36 34 36 33 34 32 29 27 33 39 42 45
57 61 62 61 60 57 49 49 47 46 46 46 48 48 52 54 49 46 43 41 35 33 34 38 40 38 37 38 37 36 37 38 40 40 39 33 28 28 30 34 39 43 42

GFSSE_prec_cthk_018.txt.gz
RH
70 70 71 74 76 69 61 60 58 53 48 41 37 30 21 16 12 13 12 13 14 14 15 16 16 17 16 17 21 21 21 22 24 30 40 41 39 31 27 24 21 21 26
65 67 65 75 79 68 66 66 62 58 51 45 40 30 23 17 15 12 14 15 15 17 18 19 19 20 21 23 24 24 25 24 22 30 32 25 24 23 25 30 29 26 28
67 67 70 69 74 70 67 67 64 59 52 45 39 31 24 19 15 13 15 17 19 20 20 21 21 20 23 26 28 28 28 26 23 22 22 19 17 17 19 21 23 27 28
70 70 71 69 73 72 73 67 65 60 49 42 38 34 24 21 15 15 17 19 21 21 21 21 21 22 24 28 29 30 31 30 29 28 27 27 25 19 17 20 22 24 24
75 73 74 73 74 75 72 70 67 56 47 42 38 30 24 23 21 19 20 22 21 22 21 22 24 26 27 30 32 31 33 34 34 32 30 30 30 22 21 20 21 24 25
72 77 74 76 79 80 80 77 69 54 47 46 38 31 29 25 21 21 23 23 22 23 24 26 30 32 32 31 32 33 33 33 34 35 33 32 31 30 21 22 23 22 21
85 87 88 89 91 93 92 82 68 62 56 44 36 29 29 24 22 24 24 25 25 28 30 31 34 36 38 39 37 34 36 37 36 34 32 29 28 29 25 21 24 25 25
96 95 98 98 98 98 93 80 73 64 49 35 29 26 22 21 24 27 27 28 29 32 33 34 38 44 46 48 50 49 42 38 38 35 32 29 27 27 25 23 22 25 26
94 98 98 99 97 93 90 82 69 53 33 20 20 23 28 29 27 27 28 32 34 35 37 41 46 54 55 54 56 54 51 46 42 37 34 33 31 29 27 26 26 26 25
94 98 93 93 89 84 79 75 54 36 20 19 26 28 29 27 27 29 33 38 38 40 47 51 54 56 59 58 60 61 53 52 46 42 41 39 36 33 32 32 30 28 27
96 99 91 90 87 86 77 62 50 34 26 27 30 30 30 34 39 39 38 40 45 50 54 57 59 59 61 60 62 61 58 53 48 43 41 42 39 36 33 32 33 31 28
74 82 79 79 68 66 61 48 30 22 24 32 36 37 40 43 44 44 45 47 49 55 58 57 58 56 57 59 59 61 60 49 42 41 39 36 36 36 36 34 35 33 32
60 58 69 69 60 54 42 25 21 26 33 37 38 45 47 46 49 50 52 56 59 56 56 57 59 55 53 50 54 54 47 41 36 33 30 31 32 31 33 32 35 36 35
50 53 56 48 44 39 28 19 25 29 39 43 50 51 52 52 56 53 55 57 57 58 58 59 52 49 48 50 44 35 31 31 29 29 29 30 29 32 32 33 36 36 36
35 34 35 35 33 31 28 31 36 48 52 56 55 52 54 52 53 52 51 52 55 55 54 44 38 38 38 37 32 33 32 30 30 31 31 31 30 32 32 35 34 35 36
34 36 39 39 39 38 41 43 52 58 61 55 52 48 44 44 46 44 49 52 48 42 34 29 31 31 31 32 32 31 27 28 31 33 32 32 34 31 32 34 35 36 38
35 39 40 40 42 44 45 49 57 65 61 51 47 43 37 38 39 43 42 38 32 27 28 31 32 32 32 31 32 32 29 30 31 31 32 31 32 29 34 37 40 41 40
36 40 42 43 45 49 50 54 61 61 55 50 45 41 34 34 33 31 31 28 30 34 35 34 34 32 34 34 31 29 29 30 29 30 29 28 27 29 32 36 36 35 35
38 40 41 43 45 50 56 61 60 61 54 43 40 33 30 28 27 28 30 33 35 38 39 37 36 36 34 29 28 30 32 31 31 30 28 26 26 28 31 36 38 36 36
43 43 46 46 50 53 55 54 52 49 40 36 35 31 27 27 29 32 34 36 39 43 39 33 32 30 27 28 29 30 31 32 31 29 27 25 25 28 29 30 31 32 32
49 42 50 54 56 56 55 51 53 45 39 38 35 31 29 30 34 36 38 41 44 45 36 31 29 29 29 27 29 33 34 33 31 29 28 27 26 26 24 25 26 28 29
46 47 53 57 59 58 56 52 53 45 44 40 36 32 32 34 38 43 44 45 46 46 40 38 35 35 30 30 34 36 36 32 27 27 26 24 23 22 23 27 27 28 29
45 50 57 62 61 60 57 56 55 47 45 42 39 37 38 41 45 48 46 44 42 43 40 36 33 31 32 34 37 39 38 34 32 33 31 28 30 33 30 28 28 28 27
41 50 59 65 63 59 58 57 58 49 46 45 43 42 44 48 48 49 51 48 41 35 37 38 35 31 34 40 43 42 41 39 38 35 35 36 35 34 31 27 26 29 30
46 54 58 59 62 61 59 61 57 50 49 48 48 47 50 51 51 52 54 51 46 44 40 39 37 38 42 45 45 43 41 41 44 43 40 39 37 36 36 28 25 25 28
58 60 65 56 63 63 65 61 55 53 53 52 55 56 58 59 60 60 57 54 55 58 55 46 45 44 44 44 43 44 44 49 50 46 47 48 47 46 41 31 30 27 31

GFSSE_prec_cthk_021.txt.gz
RH
65 63 69 75 70 60 57 58 53 51 51 43 40 33 30 26 19 20 16 14 14 15 16 16 16 20 20 20 20 21 23 23 34 34 26 20 22 23 25 25 25 23 22
64 64 68 72 71 62 64 61 55 52 55 49 40 36 32 28 21 20 19 15 16 18 19 21 21 21 22 22 24 24 24 24 23 22 20 19 17 20 20 22 29 27 25
68 67 69 71 67 67 60 63 62 61 56 44 39 37 34 31 23 22 20 18 19 20 19 20 21 22 23 24 25 26 27 28 28 28 26 24 20 17 17 18 20 21 21
73 72 73 74 74 63 63 63 67 59 51 44 40 38 35 34 25 24 20 20 21 20 20 21 22 24 25 26 27 28 28 29 28 29 30 29 25 19 19 18 19 22 23
76 75 72 75 71 66 64 73 66 60 49 41 39 37 37 30 26 23 22 22 23 21 23 24 26 26 28 29 29 29 29 31 30 29 28 28 27 24 19 20 21 20 20
73 74 78 78 74 76 78 73 67 53 46 41 37 39 31 29 31 33 26 23 22 22 26 28 29 29 30 32 34 37 36 32 31 28 28 26 23 23 21 20 22 23 23
83 86 87 84 87 91 85 78 62 50 44 40 44 42 36 35 35 30 26 25 23 26 30 32 35 37 37 40 42 42 43 41 36 31 28 27 26 25 22 21 20 21 23
94 98 98 92 98 98 90 72 59 53 50 52 44 38 36 35 32 29 29 28 28 29 35 40 40 43 47 50 50 49 48 46 41 38 32 30 30 28 26 24 24 24 22
95 98 98 99 99 96 84 72 67 65 59 42 35 33 29 29 29 30 32 33 33 38 41 42 46 52 53 53 53 51 48 47 45 42 40 37 35 32 31 30 29 28 28
90 97 94 98 96 92 84 77 74 59 37 29 32 31 32 34 33 33 33 38 40 41 40 45 52 56 52 50 52 52 55 53 46 42 38 36 37 36 33 34 31 31 29
88 95 94 93 90 91 87 81 57 35 24 30 36 35 34 35 37 39 40 41 39 41 46 50 49 50 48 45 45 46 49 46 41 37 32 28 28 29 28 30 31 30 31
93 93 90 87 83 82 77 65 52 39 36 39 44 45 44 43 40 41 41 43 44 50 52 49 52 50 41 38 39 41 37 32 31 30 26 24 25 25 25 25 26 27 30
93 80 71 70 69 64 55 38 28 27 37 39 39 43 43 45 47 50 49 48 53 52 52 52 51 42 38 39 39 36 32 29 28 26 26 28 28 28 30 28 26 27 28
66 64 58 60 59 45 34 29 32 35 38 41 44 48 51 49 48 49 53 52 53 51 50 48 43 38 41 40 38 32 30 29 25 26 27 28 29 29 31 32 33 33 33
52 50 45 43 39 38 30 32 36 45 52 58 55 51 51 48 47 48 48 46 49 47 44 40 35 35 34 33 33 32 29 26 24 25 26 28 29 28 29 32 33 34 35
30 30 37 36 34 32 36 44 46 58 61 59 57 53 51 41 43 42 43 43 45 40 35 32 34 33 34 33 32 30 28 25 24 25 26 27 27 27 30 32 35 38 39
32 35 34 35 35 39 44 46 56 61 64 61 53 51 46 43 41 42 42 39 34 30 32 35 36 36 34 34 33 31 25 25 24 24 24 25 24 26 27 30 33 38 39
35 39 43 45 46 48 49 53 60 62 64 57 49 47 41 39 39 35 31 30 31 34 35 35 35 34 32 31 28 27 28 27 27 27 27 27 26 28 31 32 33 33 34
39 42 43 43 45 48 51 56 61 70 62 51 45 41 38 35 30 27 28 31 33 35 34 35 35 32 29 28 29 29 28 28 29 31 29 28 27 25 26 28 29 29 27
40 43 46 46 50 54 56 58 62 53 48 46 41 38 36 29 28 29 31 33 35 35 36 38 40 35 33 33 32 31 30 32 35 34 32 28 26 23 23 24 26 27 27
36 41 46 50 53 55 59 60 58 54 53 47 43 39 33 31 31 32 34 38 38 36 34 36 37 37 35 34 32 33 34 36 38 36 35 32 27 26 26 27 28 30 29
43 41 45 53 56 59 61 60 60 59 57 50 45 41 36 35 35 36 38 40 41 44 43 39 35 39 40 39 38 37 40 41 42 41 39 39 37 35 37 38 36 35 34
46 46 44 52 57 62 61 63 63 63 59 50 46 43 41 41 41 43 45 47 48 47 47 47 50 47 48 44 44 45 45 47 49 49 45 45 45 46 45 42 37 36 35
49 53 55 57 61 66 63 63 62 64 73 48 47 44 45 46 49 50 50 50 52 56 60 54 50 56 49 52 54 55 55 57 57 53 53 53 52 49 52 48 41 35 31
51 57 58 60 69 68 64 64 61 63 70 54 51 50 50 52 55 56 55 54 55 59 58 64 67 61 56 52 53 50 52 54 56 55 53 54 52 55 55 52 52 45 41
55 57 66 70 69 71 62 62 61 65 65 68 64 62 61 61 60 59 58 57 64 74 83 69 61 56 57 59 57 53 57 60 59 60 56 56 58 62 62 62 63 57 45

GFSSE_prec_cthk_024.txt.gz
RH
70 71 72 69 67 60 54 51 48 49 48 42 40 39 33 32 31 27 21 20 17 15 15 16 16 17 19 20 19 19 25 23 21 20 17 14 16 19 21 26 28 24 21
69 69 70 70 67 57 52 47 52 46 50 44 47 40 34 36 31 28 23 23 20 17 17 17 18 19 21 22 22 23 23 23 23 24 22 18 15 15 16 17 18 19 21
74 69 74 72 68 60 56 53 46 50 51 55 44 35 37 36 32 32 25 25 20 19 18 19 21 22 23 23 24 25 25 26 26 25 24 23 18 17 18 17 18 20 20
77 76 77 76 73 64 57 54 50 47 50 53 40 40 40 36 39 32 29 27 21 18 20 23 24 24 24 24 25 26 27 26 25 25 25 23 22 19 18 18 17 16 17
80 79 81 82 74 67 62 56 53 46 56 47 44 42 38 39 41 36 30 26 22 22 26 26 25 27 27 28 30 31 33 34 29 26 24 23 21 21 20 18 18 19 19
82 84 87 87 84 79 72 64 58 53 54 49 42 39 42 47 39 34 29 29 24 29 30 27 29 33 33 36 37 36 36 37 36 34 30 28 24 23 21 20 18 19 20
81 85 93 96 92 89 79 71 63 61 54 43 42 41 44 38 39 36 34 31 32 32 31 32 35 40 44 43 41 40 41 39 38 37 35 33 31 28 26 25 22 21 21
79 89 89 98 96 96 85 71 64 57 45 47 46 46 48 47 42 39 32 30 32 33 35 37 45 47 47 45 46 44 43 42 40 39 38 37 35 33 29 29 28 26 24
82 91 92 98 99 95 80 66 59 52 53 54 53 50 47 44 39 34 38 33 37 40 41 43 48 50 51 50 46 43 43 43 39 36 34 31 31 30 30 29 29 29 30
86 91 89 93 98 92 82 72 66 62 58 59 49 42 39 41 40 36 34 38 40 43 43 47 49 51 47 41 37 38 40 39 36 32 31 29 28 28 21 21 22 24 27
84 84 90 97 95 90 83 74 70 65 59 42 42 40 41 38 39 44 44 45 45 43 46 52 50 45 42 33 34 34 33 30 26 25 24 23 24 28 24 22 21 20 22
86 87 90 96 94 92 89 85 79 61 39 42 43 41 42 45 47 46 45 45 44 47 51 49 45 42 32 31 32 34 33 29 27 26 24 24 24 30 29 25 25 26 25
91 91 97 92 97 93 88 70 54 48 48 48 48 49 46 44 42 45 49 49 52 51 49 47 42 37 33 33 33 32 28 26 25 25 24 24 28 27 32 31 34 32 32
63 61 58 58 61 61 58 52 40 37 40 43 40 46 50 49 48 47 47 52 50 46 46 43 37 37 37 34 31 29 29 27 24 21 22 22 25 27 28 30 34 34 31
61 54 49 42 36 33 33 29 30 33 39 46 50 52 49 48 48 50 47 45 44 46 43 36 36 35 33 31 31 30 28 25 21 22 23 23 25 24 29 31 34 32 31
44 39 41 40 37 37 34 33 39 52 55 57 59 55 51 46 44 44 43 43 42 43 36 34 33 33 33 31 28 27 25 22 22 22 22 21 22 22 24 27 30 32 32
40 41 40 42 45 40 39 43 56 61 64 60 61 54 50 42 42 42 41 39 39 37 34 35 34 33 31 29 27 24 24 25 25 24 23 23 23 24 24 28 30 32 34
38 40 46 48 45 42 45 50 54 59 61 66 56 50 45 43 42 40 38 36 36 35 33 35 35 35 35 32 28 27 28 28 29 28 27 27 29 28 30 32 33 32 31
44 48 46 43 39 40 47 51 60 62 63 57 50 46 43 43 41 38 35 33 34 36 37 37 34 32 31 30 31 33 34 32 30 30 31 32 32 30 29 29 29 27 26
46 48 46 48 51 52 52 52 58 58 56 55 51 48 46 42 39 35 34 35 36 38 39 37 36 31 30 34 38 37 37 37 35 35 35 35 35 35 33 31 29 27 27
39 43 46 51 51 54 53 54 63 62 66 59 51 50 48 43 39 35 36 37 38 39 40 41 40 41 48 48 46 45 47 47 49 46 46 45 41 42 40 39 38 36 33
35 38 43 48 51 56 58 58 62 63 62 59 57 49 49 43 38 37 39 39 41 43 44 46 54 57 60 58 66 61 53 51 50 50 49 52 52 52 49 49 48 44 44
37 37 39 48 54 57 58 59 62 62 62 64 62 50 46 41 41 43 45 47 47 48 50 56 64 72 75 64 61 58 55 55 55 57 57 54 56 57 57 52 49 46 43
46 41 45 51 56 62 63 61 61 59 62 65 68 58 53 53 52 52 56 56 59 61 60 70 74 84 79 67 61 55 55 58 57 57 57 55 56 54 51 49 46 45 45
57 47 49 55 59 64 66 66 65 64 67 67 70 67 61 64 63 63 64 62 66 69 70 76 88 91 82 61 59 57 62 63 60 61 57 57 58 57 54 54 53 57 57
63 56 55 66 67 64 74 78 67 62 65 69 71 75 73 74 75 75 72 73 77 75 78 82 78 71 65 62 56 59 68 61 63 60 59 58 58 57 59 63 65 64 63

GFSSE_prec_cthk_027.txt.gz
RH
70 71 71 66 63 58 57 57 54 51 52 46 41 36 33 33 34 29 27 23 20 19 18 18 19 18 18 19 21 20 19 19 19 18 16 15 14 14 16 19 20 23 25
76 76 77 70 64 58 58 56 50 45 44 36 40 42 36 33 36 33 31 26 24 22 20 20 20 20 21 21 22 21 21 22 23 21 18 16 16 17 16 15 16 17 18
79 80 79 75 69 64 60 55 47 41 41 35 48 46 32 34 39 37 36 29 26 25 21 21 21 23 24 23 25 25 26 25 26 24 22 23 17 17 17 17 17 16 18
79 82 83 78 74 72 63 55 49 41 42 39 46 41 37 41 39 41 38 31 27 26 22 23 24 26 28 28 30 31 30 29 28 25 24 26 21 18 17 17 18 18 17
80 82 83 80 79 75 65 59 49 44 43 45 43 39 46 41 40 41 35 32 29 26 26 28 30 31 32 34 35 36 35 32 33 31 31 30 32 24 21 19 18 18 18
79 81 82 83 83 83 73 64 54 49 45 45 40 49 42 40 48 42 36 33 29 31 28 31 35 36 37 37 38 39 37 37 35 37 38 32 32 28 27 25 23 22 20
81 82 89 89 90 88 82 66 56 49 50 48 53 45 42 49 44 36 34 35 36 36 35 36 38 39 42 44 42 39 40 37 36 34 38 39 36 31 30 29 27 25 24
83 83 86 87 92 96 84 69 60 56 51 58 47 44 47 50 44 39 39 41 40 38 36 37 43 48 49 46 41 38 38 34 32 29 30 33 28 27 25 27 26 27 28
75 83 85 86 92 97 87 71 59 56 61 50 46 51 57 52 45 44 41 41 37 37 40 45 49 51 50 40 34 33 33 32 27 27 28 31 27 25 22 20 19 18 19
82 83 89 94 96 89 82 69 62 62 55 50 55 59 52 47 45 42 37 36 38 43 45 49 53 49 45 31 31 31 30 27 23 21 22 25 24 25 21 20 20 20 20
86 89 96 99 92 79 76 67 64 59 57 63 60 50 46 50 44 39 39 44 45 44 50 52 47 44 34 28 29 29 27 26 24 23 22 20 23 25 24 24 24 24 23
81 87 94 88 88 85 81 71 67 71 74 65 51 47 48 47 46 49 47 45 46 51 51 46 44 37 30 29 29 29 27 25 25 22 22 21 21 26 26 27 30 30 28
88 92 92 91 90 93 89 83 85 81 62 50 48 47 46 50 49 45 46 48 52 50 45 45 37 33 31 32 31 29 26 25 24 21 20 20 21 23 30 28 31 32 30
90 88 90 93 91 92 90 88 71 57 52 53 50 50 49 47 47 49 48 48 48 46 46 38 33 32 31 29 27 27 24 22 21 19 20 20 21 22 27 27 29 31 29
71 69 68 73 74 76 82 66 56 46 46 47 47 49 54 51 47 48 47 45 44 45 40 32 31 29 29 29 28 28 26 24 22 22 22 21 21 22 23 25 26 27 27
52 49 48 54 60 59 50 41 33 34 41 49 53 55 51 50 45 45 44 42 42 38 33 32 29 31 31 31 30 29 28 25 23 22 22 21 22 22 23 25 29 30 30
44 43 40 39 40 39 35 35 38 49 54 57 59 60 62 47 44 42 43 38 36 36 31 30 33 31 29 28 28 26 25 26 27 28 28 26 25 24 25 26 28 30 31
43 43 46 46 45 49 46 43 47 55 60 65 61 53 50 45 42 42 39 37 36 32 32 34 34 33 32 29 27 28 30 32 33 33 34 33 31 29 30 33 34 35 34
43 49 52 51 50 46 44 44 55 59 67 66 60 50 48 45 45 43 39 34 32 33 35 37 37 37 33 33 35 38 39 41 44 41 40 41 39 37 36 34 32 31 31
46 45 46 47 46 43 41 47 53 58 58 61 57 51 48 48 46 44 36 33 32 37 38 40 41 40 40 43 48 49 51 49 44 41 42 43 43 41 40 39 38 38 37
47 48 48 51 50 49 49 51 56 56 55 62 59 57 51 50 47 42 38 35 39 42 44 47 46 46 50 60 65 64 63 55 51 47 48 48 47 48 48 47 47 46 44
40 45 50 53 53 56 58 59 63 64 66 74 64 57 50 48 45 43 41 45 47 50 53 56 56 57 63 68 73 73 68 63 57 52 50 54 55 53 52 52 50 49 48
36 38 42 48 55 57 61 61 60 64 76 69 66 64 58 55 53 54 57 59 59 58 57 58 63 70 75 80 77 73 62 59 51 51 58 60 57 54 55 53 51 48 45
42 41 38 43 51 60 62 64 60 61 66 67 67 66 67 60 57 58 61 63 63 62 62 65 77 85 84 80 73 65 57 54 55 60 63 58 52 51 47 44 42 41 39
51 53 48 46 51 58 60 65 64 62 65 69 74 67 69 74 68 64 66 67 69 73 76 77 84 93 86 81 64 58 55 57 63 62 56 54 47 43 41 41 43 43 40
59 60 63 58 58 61 61 68 72 68 69 63 67 68 73 75 83 75 77 79 82 79 81 80 81 81 81 74 58 58 63 68 60 55 51 49 45 46 44 38 37 41 43

GFSSE_prec_cthk_030.txt.gz
RH
67 66 66 67 67 68 67 68 64 58 52 47 39 31 34 33 32 31 29 26 25 24 24 22 20 23 22 19 20 20 20 19 18 17 16 16 16 15 16 17 24 25 22
71 69 68 68 69 69 68 69 63 53 45 39 32 32 40 35 34 34 32 31 28 27 25 24 22 22 22 22 23 22 21 22 22 23 27 22 17 16 17 17 17 17 17
75 74 71 68 70 69 69 66 58 50 40 32 30 35 42 35 34 37 37 36 31 29 29 28 25 25 25 25 23 22 25 26 24 26 31 32 26 19 18 17 17 18 18
81 79 79 73 71 69 68 64 57 46 36 34 35 38 38 35 40 40 39 39 34 33 33 31 30 29 28 28 27 28 29 30 31 38 40 39 32 24 22 21 19 18 19
83 81 86 80 76 72 67 63 54 45 38 38 41 41 38 40 43 39 41 39 37 36 35 35 32 32 31 30 30 32 33 35 39 46 43 45 43 31 26 27 29 24 21
83 83 81 82 78 75 72 60 52 47 42 42 46 41 40 46 41 42 45 40 39 38 36 35 34 35 37 36 37 37 35 36 42 44 43 42 41 33 30 28 28 26 26
77 82 84 80 80 79 71 66 57 46 44 48 45 50 49 44 47 47 42 39 38 37 39 38 39 41 41 40 37 36 34 32 38 38 41 40 31 26 24 24 25 27 28
80 82 85 82 83 80 74 66 54 50 48 51 53 57 47 49 52 47 42 42 41 45 43 42 43 47 48 37 33 34 32 27 31 31 34 33 23 22 21 21 19 18 18
84 91 89 87 89 88 72 69 59 53 51 53 57 54 49 51 51 45 46 47 46 41 40 44 50 50 43 32 32 28 27 23 29 30 32 32 21 19 19 18 17 17 18
82 86 87 89 91 93 82 68 62 53 56 60 58 53 54 57 49 50 50 47 42 41 49 52 50 43 33 29 28 27 24 24 28 28 31 26 24 21 20 19 19 19 19
84 88 92 94 99 84 83 81 72 63 60 62 61 62 62 55 51 52 46 42 43 50 52 54 48 41 29 28 27 26 26 27 28 28 30 20 23 23 23 23 23 23 23
87 87 92 96 97 93 91 91 66 67 66 64 66 68 60 57 58 50 44 49 49 53 56 49 43 30 29 29 28 26 27 25 25 26 22 19 20 23 25 27 28 28 27
84 91 96 92 93 93 83 75 76 74 68 72 74 62 61 57 52 54 51 52 53 59 53 46 33 30 30 29 27 26 28 27 26 26 22 21 21 24 31 31 30 30 29
91 90 90 96 88 84 81 84 82 80 82 75 62 59 58 54 52 50 52 52 58 52 45 37 31 29 28 29 28 27 25 25 24 25 27 21 22 24 31 33 30 27 27
92 95 93 90 87 89 93 92 88 81 72 60 58 57 55 51 49 50 54 57 49 45 40 32 30 29 29 27 26 24 23 21 22 24 29 23 22 24 32 35 35 34 31
82 84 89 91 90 88 87 80 70 63 56 53 54 51 50 52 52 49 51 47 45 40 34 31 32 32 28 25 23 24 23 23 26 28 32 32 26 27 29 31 33 36 35
64 68 65 69 67 65 64 53 43 44 49 50 55 57 59 57 52 45 44 43 39 35 31 30 32 29 30 27 27 28 30 32 36 37 39 36 38 34 32 32 33 32 34
50 51 55 62 72 70 61 47 40 46 51 55 58 64 64 60 47 44 42 39 36 34 30 31 32 34 35 36 37 39 40 42 43 44 41 39 37 40 41 36 37 36 36
47 47 47 47 50 54 48 40 42 48 56 63 70 67 62 52 45 43 39 37 35 32 30 32 33 38 40 45 49 47 49 53 51 48 48 46 43 40 41 39 36 34 34
54 54 51 52 51 51 51 50 51 55 69 72 69 63 52 47 46 45 41 39 36 33 32 37 40 45 49 51 54 55 58 57 56 54 50 45 43 42 45 46 44 43 40
52 52 54 56 56 53 52 49 52 61 61 64 62 59 52 49 48 47 42 42 38 39 45 46 50 52 53 58 64 65 61 64 62 52 45 44 46 48 50 48 44 44 40
50 52 55 56 58 59 56 51 53 57 62 60 64 63 57 52 51 48 47 52 52 53 53 55 54 56 60 65 73 76 79 71 58 57 49 48 50 51 51 46 41 39 38
41 45 49 53 58 59 58 57 60 62 63 66 73 69 73 62 55 54 55 56 56 59 60 61 58 58 68 73 80 87 79 65 59 54 53 56 57 54 49 46 44 40 37
39 40 41 44 51 55 58 64 61 59 63 68 77 79 73 67 65 60 60 62 60 62 63 63 67 74 80 79 74 74 68 66 63 57 58 58 57 53 49 49 44 41 39
44 45 47 48 50 53 60 60 64 69 69 67 66 78 74 71 72 76 76 70 66 66 68 73 75 82 88 77 75 71 64 64 61 62 62 57 53 53 53 53 46 39 34
48 54 56 56 61 62 63 64 68 76 78 77 73 72 69 74 80 82 82 85 75 76 78 82 82 90 91 87 79 70 66 67 65 62 57 58 59 58 54 46 38 34 31

GFSSE_prec_cthk_033.txt.gz
RH
63 63 65 67 69 67 68 68 64 60 55 49 38 31 31 34 34 31 27 28 27 26 26 27 25 23 22 20 19 19 18 17 21 21 18 18 19 19 19 20 23 24 25
66 66 65 71 71 71 70 69 66 62 55 44 31 33 31 34 36 35 32 33 31 28 30 27 26 25 23 22 21 20 19 23 28 29 29 23 20 19 19 17 16 17 18
66 71 69 73 73 75 73 71 68 63 51 36 31 33 30 39 37 37 35 37 36 33 31 31 30 29 26 24 24 23 24 30 35 38 41 35 26 20 20 20 20 19 17
69 75 75 79 78 76 75 73 69 60 46 34 35 36 34 33 36 35 38 41 41 38 36 37 34 30 29 27 26 28 32 36 42 48 49 46 36 26 27 25 23 25 25
79 82 79 81 82 77 76 73 65 57 43 35 38 41 39 35 37 39 41 43 46 43 40 40 36 34 32 31 32 33 36 42 45 48 43 43 40 30 27 30 31 27 27
74 79 78 77 79 79 75 68 63 53 41 39 44 45 44 38 39 40 46 47 47 41 43 43 40 37 37 35 34 33 34 38 44 47 42 31 29 26 23 23 26 27 27
92 85 84 79 80 73 68 65 57 51 44 43 48 47 42 46 42 45 46 49 46 45 44 43 45 42 40 32 33 30 28 33 36 38 36 28 25 19 19 19 19 18 17
95 92 81 78 78 75 72 65 58 50 51 49 51 49 49 50 47 50 53 49 44 44 46 50 48 44 36 32 29 26 23 27 31 36 36 27 20 19 17 16 16 16 16
93 84 81 82 86 77 70 62 57 61 54 49 53 53 57 52 51 52 51 44 44 47 51 48 46 39 31 28 27 25 22 24 32 33 38 29 18 19 19 19 17 16 16
91 94 94 92 89 83 75 67 65 53 55 54 61 62 58 54 53 54 48 47 48 47 47 51 49 37 27 28 26 23 24 26 27 32 29 23 22 21 22 22 20 20 18
87 86 88 93 92 88 80 73 59 56 61 67 68 66 61 60 64 60 54 51 44 46 54 53 46 30 28 27 25 24 26 26 28 31 25 18 21 24 23 23 24 24 23
86 87 92 94 91 88 83 78 75 72 75 78 75 68 71 69 66 65 60 49 45 52 58 49 37 30 31 30 28 29 26 26 26 28 19 18 22 27 27 26 29 27 25
94 92 89 92 86 93 82 84 88 86 90 78 78 76 78 70 72 65 58 46 54 58 54 46 32 34 29 30 29 24 24 26 26 28 22 21 22 27 27 32 29 27 25
86 88 92 98 94 89 93 94 94 96 86 79 78 80 73 73 72 67 61 57 59 58 49 42 30 28 28 26 23 22 22 23 25 30 28 22 22 24 34 36 36 31 28
88 93 96 93 96 92 94 98 96 90 81 79 80 76 71 74 71 68 64 60 60 54 45 32 29 32 29 27 26 27 26 27 29 31 33 31 24 25 35 39 38 33 34
95 94 98 99 98 99 97 91 87 82 81 83 76 69 69 68 63 63 59 57 54 45 39 33 33 32 32 30 29 32 33 37 34 33 40 37 32 30 32 37 35 34 35
89 94 97 97 95 89 84 87 85 82 81 73 66 60 62 63 60 61 56 51 47 42 37 34 32 33 34 33 35 39 42 41 40 42 40 42 40 39 34 33 34 34 35
71 71 71 68 71 65 66 72 76 69 68 62 71 63 60 64 61 53 50 46 43 37 36 34 35 37 38 40 44 45 45 47 47 47 46 47 47 43 39 36 33 34 37
55 57 64 68 66 71 69 64 59 50 52 62 67 68 69 70 59 48 46 43 39 37 37 36 38 40 42 46 48 48 49 50 50 47 49 50 47 41 39 37 38 37 40
50 51 61 74 77 74 68 56 52 52 55 70 77 75 73 66 51 45 49 40 40 40 36 38 44 47 50 50 47 48 52 54 56 56 53 50 46 45 42 45 44 42 40
50 46 48 48 56 64 68 59 56 53 61 80 80 79 67 55 49 48 49 45 42 40 49 52 52 52 55 51 56 61 61 59 58 59 53 50 49 48 47 48 47 46 39
51 51 54 54 54 58 55 58 55 56 61 67 72 75 66 58 52 49 54 50 52 53 56 55 55 59 59 59 67 70 72 65 59 55 59 55 51 50 51 49 45 43 43
54 53 58 59 61 63 65 63 55 53 62 66 62 68 68 66 67 60 57 56 59 58 56 56 61 63 62 67 74 78 74 72 67 62 59 57 53 53 54 51 49 47 46
40 44 47 53 56 58 61 61 59 63 63 67 69 73 76 78 77 74 73 65 62 63 62 65 65 65 65 74 83 82 83 80 72 67 63 57 55 56 56 56 54 53 48
35 38 42 47 49 55 54 56 60 64 66 70 68 67 70 75 78 77 77 78 84 86 78 71 67 67 70 83 91 92 85 80 74 71 67 72 63 59 57 58 57 53 46
40 39 42 48 49 54 60 64 62 68 71 76 80 81 77 76 76 81 83 91 95 92 88 87 77 73 80 95 94 92 87 78 77 79 71 69 69 69 65 63 61 54 44

GFSSE_prec_cthk_036.txt.gz
RH
64 52 61 60 61 63 59 60 60 56 52 45 32 27 33 29 32 31 28 28 29 28 27 25 23 22 21 20 19 20 20 21 23 20 18 19 20 19 19 17 17 19 23
76 57 63 66 70 65 65 66 64 59 53 41 29 31 31 28 30 35 33 30 34 31 28 27 26 24 22 21 19 22 24 29 32 30 22 19 20 19 19 19 18 19 19
89 65 63 67 68 71 72 71 68 62 53 38 31 33 31 32 34 37 37 34 37 35 34 31 29 28 25 24 25 28 33 38 42 44 37 26 28 24 21 22 22 19 18
83 74 69 69 68 73 77 76 72 64 51 37 34 33 33 34 31 34 34 36 38 41 39 35 33 32 31 29 31 33 39 44 47 49 42 32 29 29 30 24 23 23 21
85 79 77 76 76 80 79 80 75 64 48 38 36 36 38 39 35 35 36 39 44 46 44 39 38 36 33 31 33 38 42 44 41 37 31 26 24 23 21 22 22 23 25
95 78 83 78 74 87 86 84 76 63 46 41 39 41 45 45 40 39 40 43 48 48 47 44 42 40 34 31 32 35 38 42 39 31 21 18 17 21 16 15 17 17 17
93 98 84 82 78 86 90 87 75 59 46 42 43 43 49 47 44 43 45 46 51 52 50 48 43 39 36 30 24 27 31 35 33 27 22 13 14 15 15 12 13 13 14
57 95 95 89 87 82 92 79 69 55 48 47 49 52 51 49 50 49 49 53 56 55 52 48 42 38 31 24 22 25 29 33 37 28 24 14 14 14 14 13 12 12 13
74 98 94 91 92 91 82 76 66 54 50 50 55 55 53 53 52 53 53 53 55 51 53 52 41 30 25 23 23 25 26 27 31 29 22 15 16 19 20 18 16 14 13
80 92 91 95 92 86 81 72 60 52 52 57 63 56 55 62 56 56 56 57 51 54 58 47 35 28 26 24 24 24 23 24 25 24 22 19 20 21 19 18 19 17 16
97 97 92 91 93 89 84 70 63 64 69 65 59 59 66 66 59 59 61 58 55 61 56 46 34 29 28 26 24 24 23 24 24 23 19 21 23 24 23 22 23 20 20
95 96 94 96 95 88 88 75 76 81 69 63 63 70 74 71 65 65 65 63 63 62 54 47 32 30 32 29 26 23 21 23 22 21 17 17 24 27 26 27 27 24 23
85 89 90 94 91 88 82 83 89 74 75 74 76 77 79 74 74 70 69 65 61 63 59 41 32 33 32 28 23 19 21 22 24 25 25 22 25 29 28 30 31 30 27
86 83 92 87 86 85 87 93 83 77 83 79 82 83 81 80 76 71 67 62 66 67 58 38 33 32 27 24 21 20 20 23 29 30 30 30 25 28 33 34 37 36 32
83 87 86 86 88 87 91 92 79 84 88 88 83 86 84 78 74 71 70 65 67 64 52 39 32 30 27 24 25 26 28 32 35 34 35 33 28 32 39 42 44 36 32
83 84 87 89 91 88 93 82 88 94 94 94 86 83 80 79 74 71 73 66 64 58 50 35 33 31 32 28 27 29 36 41 38 39 38 40 37 33 37 41 44 36 34
89 89 91 93 93 98 97 98 97 97 93 88 83 81 80 74 68 66 59 60 61 52 46 36 34 34 31 31 32 37 42 44 43 44 41 41 39 40 35 34 33 32 31
77 80 86 87 89 94 94 92 91 90 84 85 81 76 64 58 58 56 54 57 52 46 43 37 34 34 34 35 40 45 45 44 47 50 52 45 46 44 40 37 35 31 31
62 67 71 70 71 68 68 64 68 68 67 70 64 59 57 56 57 56 58 53 48 44 40 38 35 36 38 46 49 48 46 50 54 54 52 49 46 39 40 39 37 36 35
50 48 53 56 52 54 58 63 62 57 60 61 61 65 68 62 66 57 54 50 46 44 42 38 39 43 48 51 53 51 54 61 62 60 54 49 48 49 44 41 39 38 38
45 46 48 48 51 58 66 55 58 50 50 51 65 77 71 77 63 54 54 52 49 46 44 48 47 49 52 56 56 59 64 66 67 64 61 57 52 49 51 50 48 41 39
39 41 45 49 51 56 56 48 46 44 43 45 59 70 80 92 57 53 53 52 51 55 58 55 54 53 54 60 61 67 70 72 71 69 64 60 57 56 55 50 50 47 47
41 39 42 45 45 48 52 46 49 50 46 45 54 55 65 82 64 58 61 61 60 59 56 55 59 58 61 63 65 68 72 80 78 69 68 65 61 63 61 58 53 53 52
40 40 41 41 40 43 49 53 57 52 50 53 57 58 61 67 73 73 78 80 78 76 74 70 74 70 68 68 72 75 79 90 91 83 73 68 68 69 63 55 59 62 59
36 38 39 43 45 48 49 54 61 59 53 57 66 70 69 66 65 70 77 84 84 81 80 80 91 93 87 81 84 83 89 95 94 86 82 81 77 74 65 60 62 62 62
38 36 38 40 44 47 54 55 61 62 62 67 75 73 74 77 77 82 86 87 88 92 95 96 95 95 93 89 88 92 93 97 92 85 81 80 81 76 72 69 67 66 68

GFSSE_prec_cthk_039.txt.gz
RH
94 85 78 59 66 59 65 55 52 49 44 34 28 26 28 27 27 28 29 27 27 27 23 22 22 21 21 20 21 22 24 25 22 18 18 18 18 17 17 17 19 23 25
83 97 80 71 69 68 64 58 57 53 43 33 30 29 31 31 28 31 33 30 28 27 25 24 23 22 25 26 27 30 29 29 28 25 18 18 18 18 17 17 17 18 19
53 90 92 84 80 69 68 68 64 58 45 35 34 32 32 32 31 31 34 33 31 30 30 30 27 27 30 31 32 33 35 38 32 31 24 28 26 23 22 19 17 17 17
54 62 95 88 85 83 79 75 66 60 43 37 36 36 36 34 32 31 33 35 37 36 36 36 32 31 34 36 38 38 36 33 35 31 21 21 25 26 23 25 24 23 22
68 77 80 78 94 93 81 75 72 59 41 40 41 41 41 36 34 33 33 37 38 39 42 41 36 35 37 39 40 38 36 34 31 23 18 17 20 24 22 19 19 20 22
84 92 92 85 90 91 88 80 73 56 44 42 42 43 43 40 39 41 42 39 41 45 46 44 41 37 38 38 38 34 35 33 28 18 13 12 13 15 13 12 12 13 13
81 73 98 90 97 92 90 87 76 55 45 45 45 46 45 47 46 49 47 41 44 48 49 44 39 35 32 34 33 32 29 27 24 20 12 11 12 12 12 11 11 12 12
66 63 65 98 92 94 92 92 76 58 49 45 47 46 47 51 50 53 49 47 51 56 51 45 38 30 28 30 31 33 30 26 21 17 12 11 12 15 13 12 12 11 11
65 76 82 97 98 89 89 88 79 56 47 44 48 46 49 51 53 56 54 55 60 59 45 39 36 31 27 25 28 30 27 21 19 19 14 13 18 21 20 15 15 14 13
82 88 93 97 98 96 96 87 65 54 49 50 52 52 55 60 56 56 60 62 63 58 48 42 35 28 23 25 25 25 23 23 22 21 17 14 20 24 24 24 21 18 16
82 82 87 98 99 97 94 84 68 52 51 52 56 59 61 58 56 61 64 62 66 59 54 42 33 28 26 25 25 25 22 23 21 20 17 18 23 25 25 23 22 21 24
89 88 89 85 90 93 90 86 70 67 65 65 61 65 62 59 65 69 66 67 68 68 63 47 37 30 28 27 23 20 20 20 21 23 22 20 27 27 27 28 28 27 24
84 87 89 85 89 88 87 85 80 77 69 73 68 70 67 68 69 69 69 68 73 72 64 47 32 29 29 26 20 20 20 22 26 29 27 23 27 30 32 32 34 32 27
79 79 81 78 85 81 81 81 78 82 76 77 73 74 71 72 73 73 73 69 68 72 63 44 32 30 30 25 21 22 23 29 34 34 32 31 27 27 32 34 34 32 29
72 74 75 80 75 79 85 85 76 88 84 78 77 76 74 74 74 74 71 65 67 71 63 39 32 32 28 25 26 26 27 35 36 36 37 37 32 30 37 40 35 34 33
75 73 76 84 74 85 88 85 82 93 80 72 85 79 73 76 76 73 71 70 68 68 55 41 34 31 29 28 27 30 34 39 38 39 41 40 39 35 40 44 40 36 34
80 81 80 83 79 89 87 84 89 88 76 86 83 78 77 80 75 77 75 65 60 56 49 42 35 32 31 30 29 34 40 44 41 43 45 45 43 41 35 33 33 35 34
73 80 87 90 89 89 87 89 88 82 80 87 84 80 79 77 82 72 60 55 54 52 46 42 35 34 33 32 33 42 47 47 48 48 48 47 45 44 42 39 37 35 35
64 67 69 73 78 82 81 81 81 80 78 76 76 74 75 72 62 51 45 46 50 47 45 45 40 36 34 38 44 50 51 54 57 62 54 49 50 50 45 41 40 39 43
49 55 56 63 63 61 62 66 71 67 68 65 68 64 59 57 51 47 45 49 46 47 47 46 41 40 42 47 50 53 54 57 63 66 67 62 58 55 47 46 46 47 49
45 44 47 50 54 58 52 51 52 52 54 59 64 63 59 62 61 65 52 53 47 47 48 48 50 53 51 52 53 56 60 66 67 68 70 71 69 63 57 54 53 54 53
37 40 42 44 45 45 45 44 46 47 47 50 53 56 67 73 76 64 59 53 52 53 53 55 55 53 51 51 56 63 66 69 72 72 73 75 73 68 65 64 62 62 58
34 34 37 38 41 41 40 43 44 44 45 44 41 46 70 75 76 66 65 59 59 58 59 59 60 62 62 60 60 67 71 71 74 77 84 85 79 73 70 69 68 63 61
28 28 29 31 34 36 40 39 39 39 41 43 41 46 57 64 64 74 77 74 75 82 85 84 78 79 86 81 78 85 83 79 79 85 88 90 80 78 79 76 71 65 60
32 29 28 28 32 36 39 40 38 38 44 44 46 49 60 69 68 65 75 73 80 81 84 85 94 96 93 94 94 87 92 88 88 92 87 89 83 82 80 76 67 61 66
36 40 34 32 37 38 39 43 49 52 58 57 52 56 68 76 80 86 81 84 85 83 80 82 88 95 93 89 92 92 90 90 90 91 93 89 85 81 80 73 68 68 70

GFSSE_prec_cthk_042.txt.gz
RH
68 81 81 73 78 86 76 70 64 54 43 34 28 25 27 27 25 23 23 23 24 25 23 21 20 20 21 22 22 20 19 18 19 19 17 16 17 18 19 21 23 27 28
70 79 82 89 82 75 76 70 70 53 38 31 29 27 27 27 27 29 30 29 26 26 26 24 24 25 26 27 27 29 25 22 19 19 18 23 20 17 17 18 19 25 24
64 74 71 93 90 84 77 71 65 45 40 39 34 31 33 34 30 32 31 30 28 27 27 29 30 32 31 32 31 33 30 27 23 21 21 20 26 26 20 18 19 22 25
66 69 63 88 96 89 82 79 67 49 44 41 37 35 34 33 33 31 32 33 32 32 34 35 36 39 36 34 34 33 34 29 26 19 18 21 25 25 24 23 23 23 22
61 62 58 55 90 92 90 82 68 48 46 43 39 38 40 39 35 33 33 33 37 38 38 39 40 40 37 36 36 35 34 28 18 16 15 16 22 22 16 16 16 14 16
60 68 67 69 72 93 88 83 67 48 47 46 42 42 44 43 39 38 36 39 38 38 39 39 43 43 39 38 38 34 30 25 19 13 12 11 12 14 12 11 11 14 13
65 77 82 85 98 80 77 90 69 47 47 46 44 47 46 45 43 43 43 47 45 42 40 43 46 42 38 37 34 31 27 25 16 12 10 11 15 19 16 11 11 10 11
67 71 74 69 81 95 96 79 68 49 48 47 47 48 48 47 47 48 48 49 46 43 41 42 44 41 36 32 33 28 26 24 18 12 11 11 14 17 15 13 13 13 12
71 68 75 76 74 91 98 75 60 49 50 49 50 49 49 48 50 52 54 55 50 50 47 42 38 39 36 29 26 26 25 20 17 16 12 14 19 22 21 17 16 14 12
80 81 80 84 87 96 93 80 72 66 57 54 49 48 48 53 54 55 60 56 55 60 49 37 35 35 34 27 25 25 22 20 17 17 15 18 25 25 25 25 23 19 17
80 82 80 99 97 95 98 84 75 68 61 50 46 50 54 59 59 60 61 62 65 60 45 41 37 32 28 26 25 22 20 18 20 20 17 19 25 27 28 28 26 24 21
83 82 82 86 98 98 97 88 76 66 59 49 57 60 58 60 62 62 63 65 67 67 55 44 40 33 26 26 23 20 20 19 22 25 24 23 29 29 30 30 30 28 28
77 83 82 83 87 94 91 82 68 64 64 68 63 64 61 63 64 61 61 65 71 67 59 51 45 36 29 25 19 19 20 23 28 29 29 28 31 33 32 33 33 33 27
78 79 84 85 86 88 86 80 72 73 70 66 63 61 65 67 64 64 64 69 73 70 66 51 39 31 30 25 21 21 25 29 34 33 31 31 34 34 35 38 38 35 30
74 75 83 84 85 87 83 80 68 72 73 67 63 65 67 68 67 68 70 71 70 71 70 50 37 37 31 26 22 24 27 31 37 35 36 37 37 36 41 42 40 37 35
73 75 78 86 86 93 84 75 76 82 71 76 70 66 71 71 69 70 72 71 66 70 67 50 38 33 32 26 25 25 28 34 39 39 39 42 41 40 41 43 44 40 38
81 83 77 76 86 86 81 80 87 84 77 81 73 73 75 74 71 72 73 68 67 70 65 51 32 33 30 28 28 29 33 41 43 44 44 47 46 44 45 43 44 40 38
85 87 87 89 94 82 83 84 85 82 81 82 78 77 77 73 71 74 69 74 65 64 58 47 39 32 30 29 29 32 38 45 47 49 52 55 53 54 54 49 45 43 40
67 81 88 91 92 88 88 88 86 82 82 81 82 79 78 74 74 71 70 62 53 55 51 46 40 33 31 30 33 37 41 45 49 54 59 60 61 60 60 56 53 51 49
59 66 71 73 77 81 82 80 80 75 74 72 75 77 69 70 71 65 53 46 46 48 46 42 41 38 36 36 38 41 44 50 55 57 60 63 65 65 65 65 62 59 56
46 51 58 62 63 61 63 64 65 64 61 61 62 62 61 62 61 53 41 40 41 44 45 43 45 47 44 42 43 44 47 52 58 62 63 66 66 67 71 69 65 63 64
39 43 47 48 51 53 51 53 55 53 51 55 58 59 57 63 60 61 54 40 45 47 49 50 51 52 52 52 52 53 54 52 57 65 69 67 66 69 67 67 66 67 68
33 34 35 37 37 39 40 43 45 46 46 49 48 49 57 64 63 64 60 57 52 53 55 61 65 68 69 71 70 72 72 71 72 74 77 73 70 69 71 69 66 65 64
26 28 30 34 36 33 36 40 43 41 38 41 41 43 51 54 60 64 67 67 72 68 69 75 78 80 83 85 87 92 81 79 78 77 79 76 75 73 73 73 73 71 67
25 26 28 33 38 36 35 38 39 38 44 42 43 47 49 53 58 61 64 74 77 76 79 85 86 81 78 81 89 90 84 80 72 75 75 73 74 75 72 73 71 67 62
33 33 33 33 38 43 43 41 42 42 45 47 45 44 45 48 55 65 70 75 83 86 84 79 89 83 85 75 73 72 69 65 56 63 66 69 70 74 75 71 69 71 72

GFSSE_prec_cthk_045.txt.gz
RH
84 83 75 71 75 80 75 82 66 53 56 54 53 45 39 37 36 30 21 22 24 25 26 26 22 19 18 17 18 18 18 19 18 19 19 20 22 23 24 25 27 29 30
80 76 69 67 72 72 70 76 72 63 48 45 45 40 37 35 33 26 25 27 27 24 24 24 23 22 22 23 22 20 18 18 18 21 20 22 24 21 23 24 25 30 29
75 75 69 69 67 66 69 82 79 73 50 40 42 40 35 31 30 28 28 28 27 26 25 25 25 27 30 32 29 27 25 22 22 22 28 28 27 25 22 21 23 23 24
78 74 78 73 69 68 69 90 83 77 38 43 42 40 35 34 34 29 28 29 28 29 30 30 33 33 34 36 34 30 26 23 23 22 26 26 27 24 23 22 21 21 20
71 78 74 74 70 69 73 90 80 48 46 40 43 45 37 39 35 30 29 29 32 34 35 36 38 40 38 38 37 33 26 21 20 17 18 22 22 21 19 17 20 18 17
68 74 74 74 73 73 76 94 77 52 40 46 47 46 40 41 39 36 35 35 36 39 39 38 38 38 41 40 38 33 28 18 15 14 13 14 15 19 17 17 14 16 14
60 63 72 83 86 84 92 91 68 63 46 53 49 45 45 45 43 41 40 40 39 44 45 42 40 40 42 36 32 30 24 18 14 13 12 13 18 19 19 19 19 19 19
71 66 75 80 83 87 92 94 72 55 50 57 51 48 49 47 46 47 45 45 46 47 46 44 41 39 36 34 32 28 24 18 15 13 12 13 19 21 20 19 19 20 20
79 74 79 87 85 88 88 97 88 67 55 63 52 49 52 50 50 50 47 48 48 49 48 47 42 37 34 33 32 27 22 20 15 12 13 16 23 23 24 23 22 20 18
83 84 84 95 98 87 81 92 90 69 60 60 49 54 55 53 53 52 49 50 49 49 51 49 45 38 35 31 30 24 22 19 15 14 15 19 24 24 24 25 20 17 15
81 81 90 87 86 87 93 91 87 76 62 61 56 56 57 56 54 55 52 54 52 51 53 54 39 35 33 33 27 22 20 18 18 19 19 20 22 27 28 26 22 22 23
87 88 85 80 95 97 95 92 90 70 65 70 63 62 58 55 55 56 57 57 56 55 56 49 44 40 36 31 23 20 18 19 22 23 23 22 24 29 30 30 30 29 27
89 88 85 84 89 96 97 94 95 91 92 78 64 61 58 60 57 59 58 61 59 58 56 46 44 38 36 29 21 20 20 23 26 27 27 28 31 33 31 32 34 31 25
84 85 87 89 87 91 91 93 93 93 88 73 69 60 63 62 60 55 58 67 64 62 55 50 45 36 33 27 22 21 22 26 31 30 30 31 37 36 37 38 38 36 29
81 84 82 85 88 92 93 89 87 86 84 82 63 62 63 59 57 57 62 69 70 69 63 54 48 41 31 26 21 24 26 25 30 33 34 34 35 38 39 40 40 37 33
78 75 81 89 89 89 88 77 74 72 80 74 65 66 60 59 58 62 65 71 71 70 68 58 47 36 28 30 32 25 24 26 31 36 38 38 36 36 43 45 47 46 39
79 80 85 87 97 95 93 89 79 70 81 71 67 67 66 65 65 69 69 71 68 68 71 63 41 36 35 32 29 25 27 30 37 40 43 44 45 43 46 48 49 49 43
87 92 82 80 88 91 89 90 84 83 81 77 73 72 68 70 73 72 72 72 68 66 68 60 46 37 34 35 28 27 29 35 38 41 46 49 50 51 52 52 53 52 50
83 93 93 86 93 96 98 89 89 83 82 81 81 77 73 73 74 75 74 74 70 65 63 57 44 38 37 32 30 31 35 38 40 45 50 55 57 58 60 60 60 58 55
66 75 90 91 91 95 98 90 88 87 88 84 80 78 77 79 74 75 71 69 71 57 52 50 46 44 39 37 39 38 40 41 42 45 50 56 61 63 65 66 63 61 55
50 59 60 68 83 91 90 89 90 87 85 77 74 77 81 77 71 70 70 67 55 48 45 47 45 46 46 47 48 47 45 45 47 51 53 57 63 72 73 70 66 60 58
40 45 50 56 59 65 69 73 74 76 72 70 71 74 76 69 64 61 59 51 45 41 44 50 52 54 57 57 57 56 54 56 60 65 68 68 70 75 78 74 69 64 59
31 37 41 43 50 55 61 65 66 66 63 63 65 67 65 62 60 62 62 53 47 45 48 54 56 61 64 66 66 68 71 74 75 76 70 70 69 70 70 65 65 63 61
25 30 34 35 37 43 50 52 54 57 57 61 60 57 60 62 63 67 67 64 55 59 57 61 66 72 77 75 76 75 73 80 78 72 70 60 61 59 58 60 61 61 61
21 24 27 31 32 36 41 43 44 46 45 48 49 50 52 56 63 67 65 60 63 71 67 68 77 86 92 90 88 77 72 66 63 58 57 55 61 57 60 60 61 61 60
26 25 26 28 32 35 36 38 39 40 42 45 47 48 49 51 54 54 57 59 73 78 78 81 89 90 91 93 90 84 70 60 59 58 57 58 58 61 61 62 65 63 64

GFSSE_prec_cthk_048.txt.gz
RH
60 69 80 78 76 77 77 71 64 62 68 74 74 71 62 53 43 38 26 23 27 30 32 26 21 19 20 18 17 18 18 19 21 27 26 27 29 29 28 29 31 33 34
66 71 75 73 75 76 73 67 62 60 61 66 70 68 61 49 41 36 27 29 29 30 27 22 22 21 20 19 18 19 19 19 20 23 27 29 28 26 29 31 31 31 31
70 65 71 71 74 73 69 64 60 63 62 62 61 60 50 41 38 31 30 30 31 28 31 27 26 25 25 24 22 22 22 22 22 25 27 26 27 25 25 25 25 24 23
71 67 72 71 70 73 68 64 61 65 66 56 45 51 43 37 33 34 33 30 30 31 35 33 32 32 32 28 25 25 24 23 24 28 29 30 27 24 22 21 20 20 18
70 72 78 72 73 74 71 65 63 66 72 66 39 38 37 35 35 35 32 31 31 35 34 33 37 35 35 34 29 24 24 24 22 22 26 25 23 21 20 19 19 19 19
65 77 74 71 72 74 72 69 71 72 78 54 44 34 36 38 39 38 36 34 36 37 37 37 38 38 36 35 30 24 22 20 18 17 16 20 20 19 19 19 18 19 19
67 73 72 78 77 78 77 85 82 84 74 50 41 42 43 43 42 42 40 41 40 42 40 43 44 42 39 35 31 25 20 19 17 17 16 16 19 19 20 20 19 17 15
72 74 76 82 80 79 77 88 88 78 66 68 47 48 44 44 43 45 45 46 46 45 45 45 45 41 38 33 29 24 22 18 18 16 16 16 19 20 20 16 15 16 14
75 79 81 85 82 83 83 79 87 79 72 57 46 51 47 46 46 49 51 50 50 50 50 46 45 42 39 34 29 27 21 17 17 16 16 17 21 22 22 18 14 13 12
82 85 90 93 87 86 91 88 86 86 82 61 52 49 49 52 53 55 55 54 53 52 49 47 53 44 38 31 31 23 23 18 16 18 17 20 22 23 19 18 15 13 13
89 84 91 91 91 95 91 92 90 90 86 68 52 54 59 58 57 59 57 55 54 51 49 49 50 47 40 39 33 30 21 19 21 20 20 22 25 23 20 17 17 16 16
87 85 90 96 94 93 93 92 90 87 83 77 62 63 60 59 61 62 57 53 50 52 54 54 58 45 38 33 33 26 22 22 23 23 23 24 27 26 21 20 21 19 18
86 89 92 86 91 96 96 98 94 93 95 84 70 62 65 67 64 63 54 52 53 51 53 57 51 41 35 35 31 28 26 25 27 27 27 28 30 28 26 25 27 25 22
89 92 87 91 91 95 98 98 92 90 92 86 79 72 74 69 64 61 57 58 55 57 55 55 47 42 39 34 28 25 27 28 30 30 29 29 33 32 34 34 34 32 28
81 84 88 92 92 95 98 98 96 96 97 91 85 79 82 73 66 64 64 62 59 61 62 56 50 44 37 36 33 27 26 27 31 35 35 33 34 35 39 40 40 38 34
82 82 84 90 94 96 96 95 94 94 92 87 86 78 77 70 67 66 69 67 66 67 64 60 52 46 36 33 29 28 26 30 33 33 37 39 40 43 44 44 45 45 40
75 83 85 92 96 95 95 94 94 92 92 93 90 77 76 72 67 67 71 70 71 71 70 62 54 51 42 36 31 29 36 36 31 37 42 43 42 43 49 50 51 51 49
89 86 84 91 98 97 94 98 96 89 93 90 86 77 75 73 72 70 71 71 73 73 70 69 62 49 39 36 33 38 33 30 35 43 41 42 45 46 49 51 51 54 55
82 94 99 93 91 96 97 92 87 87 92 89 87 76 76 77 75 74 74 74 74 74 71 74 64 48 38 40 40 40 31 33 37 40 41 45 48 50 52 54 56 60 60
70 88 95 91 95 95 94 94 90 89 87 87 86 80 80 80 78 78 78 78 77 78 74 70 60 52 46 41 45 37 36 38 39 41 44 43 48 55 58 60 69 70 67
53 59 75 92 91 98 97 99 92 88 88 86 85 88 86 85 81 82 81 78 78 77 74 65 61 55 51 48 46 45 44 43 43 44 46 51 65 67 71 74 75 75 73
42 50 54 66 79 92 97 99 97 89 90 90 92 94 90 88 85 83 81 81 80 78 66 52 52 57 56 57 55 55 54 57 56 58 59 73 72 68 71 74 73 69 64
35 40 42 50 59 69 80 85 87 89 86 79 86 85 81 83 80 79 86 73 75 66 59 50 49 55 58 57 60 63 59 62 58 65 75 74 72 69 61 66 59 58 62
28 31 36 38 48 56 60 68 66 69 67 68 74 71 72 73 73 74 70 62 57 54 52 47 51 57 60 63 66 70 73 70 67 61 60 59 60 62 55 59 60 60 59
23 25 29 34 36 42 46 48 50 54 58 61 62 60 63 65 66 66 63 59 59 59 56 55 57 62 65 69 76 81 84 89 80 70 59 60 62 61 55 56 53 59 60
26 24 27 31 33 37 40 42 45 45 46 51 50 52 56 60 64 62 61 65 63 63 58 63 69 71 80 88 90 94 92 92 84 71 67 66 62 65 64 59 59 60 66

GFSSE_prec_cthk_051.txt.gz
RH
37 47 57 64 68 76 70 80 77 78 68 70 68 70 65 57 52 38 29 25 26 33 40 34 31 30 29 24 25 24 25 26 27 32 34 32 31 30 30 33 32 31 32
40 44 53 62 65 66 74 80 74 69 72 67 73 68 68 64 52 40 30 26 33 39 38 32 31 28 24 19 19 21 24 26 27 28 29 27 30 31 32 31 32 31 31
52 57 59 60 66 68 71 78 73 69 75 69 73 62 67 63 54 39 32 31 33 35 30 30 29 25 22 21 21 20 21 22 25 27 27 29 30 29 27 25 23 24 22
61 67 69 69 65 70 73 72 70 68 68 70 68 62 64 58 44 40 34 35 32 31 33 31 27 26 24 25 25 25 23 25 25 26 29 28 27 22 19 17 17 17 16
70 73 71 71 69 70 73 68 68 64 65 70 63 56 52 42 39 39 33 34 36 38 39 38 33 30 29 27 27 25 25 27 30 31 29 27 24 22 19 15 13 12 12
73 79 73 72 75 71 68 64 65 64 63 65 64 53 44 38 37 33 36 38 40 44 47 41 39 37 34 32 31 28 26 25 26 26 23 24 22 21 15 12 12 13 11
73 80 74 70 73 68 65 64 68 64 67 68 70 55 36 39 35 44 42 42 45 45 45 46 44 41 36 34 31 27 23 21 21 25 25 22 21 20 17 12 11 11 14
78 75 73 76 77 73 69 67 72 71 72 74 77 42 35 39 45 47 44 45 46 49 50 49 47 42 37 34 30 24 21 22 20 23 25 23 21 16 14 13 11 10 9
80 84 91 83 81 80 76 74 74 83 85 80 60 58 41 46 48 49 46 48 51 52 53 52 46 43 43 36 29 23 22 21 19 19 24 23 19 18 16 14 13 11 10
83 86 96 95 80 93 87 86 89 83 87 88 65 55 49 47 47 51 52 53 55 52 54 50 47 45 44 37 28 24 23 21 17 19 24 24 22 25 23 18 14 13 13
86 88 95 96 96 97 96 96 93 88 91 94 81 54 51 47 53 56 55 59 56 54 51 50 46 48 42 34 27 25 23 21 27 26 27 26 25 27 25 17 16 16 16
86 89 92 95 95 94 97 95 95 92 94 93 70 50 53 50 55 58 58 60 55 54 53 55 50 56 46 38 32 31 29 32 26 29 29 29 27 28 24 20 19 18 18
87 95 90 90 84 88 92 94 93 90 91 95 68 51 55 57 61 60 59 61 59 54 54 56 58 60 43 38 33 31 36 31 29 37 34 34 34 33 32 26 22 21 21
84 90 95 91 91 94 97 96 93 92 94 95 67 59 57 64 62 59 61 54 56 54 53 57 61 50 41 34 32 36 34 37 35 33 35 35 35 35 36 36 34 30 27
77 86 86 89 93 95 98 98 97 96 96 95 69 66 69 65 65 64 60 57 56 57 56 60 58 46 41 36 40 40 40 34 32 34 39 38 37 40 40 41 40 38 32
72 77 84 89 91 96 98 98 96 95 96 90 79 78 78 72 71 65 65 62 59 60 59 61 57 49 41 42 40 37 30 29 32 32 35 38 42 45 46 47 45 45 42
70 74 79 86 91 96 97 98 99 98 95 91 88 85 84 77 76 70 68 67 66 66 65 64 62 56 47 40 40 38 34 28 29 34 37 43 41 44 47 47 48 48 49
73 78 80 87 93 96 97 96 96 96 94 92 90 87 81 84 80 74 74 72 73 73 71 69 64 56 50 44 40 38 28 31 36 39 39 40 41 42 41 46 47 50 52
74 92 82 84 94 95 96 98 97 98 94 95 91 86 86 85 78 77 80 78 78 79 77 76 74 63 56 53 41 39 35 32 39 42 38 43 43 41 41 48 51 50 55
65 84 88 98 96 93 96 98 98 98 95 94 91 88 88 83 78 77 76 78 79 80 81 81 79 71 58 48 48 41 39 45 42 39 41 41 42 42 49 58 61 64 63
52 63 85 97 95 96 93 98 97 93 91 91 89 89 88 83 81 79 79 80 81 81 84 80 77 73 59 55 47 47 51 54 47 50 51 48 47 50 61 64 65 67 72
42 50 57 70 89 96 95 97 95 95 95 93 87 88 87 84 81 80 79 80 83 84 83 80 71 64 61 57 56 56 62 57 57 60 57 61 62 66 67 67 64 61 61
34 39 46 56 68 88 93 94 93 94 96 95 90 89 87 83 84 83 81 84 83 84 81 79 70 55 55 58 63 67 60 59 59 58 61 58 67 65 58 63 60 53 51
26 33 36 43 58 68 77 84 82 83 89 92 88 85 82 84 87 85 84 83 78 83 81 76 68 56 55 57 63 67 67 67 68 70 76 66 63 58 59 60 57 57 52
23 25 32 35 42 52 60 62 70 68 68 68 70 72 71 77 79 80 78 78 78 78 75 66 60 60 57 56 60 65 67 69 76 78 83 85 80 70 63 68 61 64 61
25 21 25 29 32 39 45 51 56 61 60 60 62 62 65 74 70 71 71 72 74 68 56 54 57 69 67 64 65 71 72 78 84 88 92 93 89 81 75 71 68 68 66

GFSSE_prec_cthk_054.txt.gz
RH
36 41 45 51 58 57 60 68 80 82 76 76 72 73 68 65 53 42 26 28 28 30 32 29 27 26 29 28 29 30 30 31 29 30 32 31 31 31 33 38 38 34 33
46 44 43 51 57 57 57 58 80 80 77 75 73 77 68 65 59 49 28 32 34 33 35 29 29 26 25 25 25 28 33 34 35 33 33 35 35 36 36 35 34 33 32
52 52 51 51 57 56 57 65 66 81 72 73 77 76 70 55 59 52 36 29 37 39 34 31 28 26 23 25 27 29 29 30 31 31 32 35 37 37 35 31 29 27 24
52 60 60 61 57 56 61 69 75 74 70 75 77 80 75 62 61 58 41 31 36 38 31 32 32 30 24 24 26 27 29 29 29 33 37 39 33 31 24 22 20 17 15
52 61 68 68 67 72 64 73 79 75 71 74 75 79 74 61 55 53 40 33 36 32 33 32 32 28 28 28 28 28 26 26 32 38 35 30 27 23 17 15 14 11 9
55 62 68 70 74 76 79 76 79 73 71 70 76 78 71 58 53 47 38 35 39 36 38 31 31 30 32 31 32 31 30 30 35 31 26 24 23 14 11 10 9 8 8
60 72 73 75 76 80 94 79 75 70 67 71 74 79 67 51 43 45 37 40 44 43 37 35 35 34 33 33 34 33 29 29 32 29 27 22 21 16 11 8 8 8 8
61 71 78 81 78 74 77 89 73 68 77 76 74 67 67 52 42 39 43 44 54 57 43 45 39 37 34 33 33 33 26 29 35 33 29 22 20 15 11 9 9 9 8
53 67 80 90 83 76 86 89 76 70 77 82 76 69 60 51 41 45 45 49 50 51 50 46 43 39 34 37 32 28 27 31 36 31 29 23 19 21 18 13 12 11 10
65 69 83 88 94 86 92 97 96 77 77 81 83 82 72 51 44 50 50 51 53 53 49 49 45 39 36 39 32 27 25 30 38 34 32 24 26 25 23 17 15 13 14
72 83 94 89 94 92 83 86 92 83 84 83 79 87 71 47 53 50 53 56 58 55 51 49 43 38 40 34 30 27 32 37 36 36 28 28 27 27 25 19 17 16 17
81 86 96 90 83 86 90 90 92 98 98 92 89 91 75 55 53 62 55 60 59 58 52 48 45 41 45 38 33 32 39 36 39 37 34 32 29 29 28 23 19 18 18
82 83 92 95 91 94 96 95 98 99 97 93 95 91 81 59 59 60 57 61 59 55 57 51 50 58 57 48 40 39 40 43 45 44 35 32 30 30 28 23 20 20 21
79 81 90 93 95 92 98 98 98 93 97 96 97 92 73 63 58 66 65 64 61 64 57 54 61 61 58 47 45 46 43 46 53 47 33 36 35 33 33 32 29 27 27
73 81 88 92 92 91 96 96 99 96 97 97 95 89 68 58 64 66 67 65 62 66 60 61 61 60 51 44 43 43 42 44 49 47 39 37 35 39 41 40 38 33 32
72 73 79 82 90 93 94 97 99 98 97 98 95 72 62 68 68 65 65 62 60 64 66 65 63 53 49 46 44 43 42 43 48 52 46 40 40 45 45 46 43 40 39
64 69 74 82 88 93 96 99 99 98 96 97 88 71 70 74 70 67 66 65 61 60 64 65 64 57 51 49 46 48 49 50 48 39 42 46 44 49 48 48 45 44 43
58 66 81 82 86 91 94 98 97 98 98 96 80 73 76 76 75 72 71 67 65 65 66 67 65 65 59 52 50 49 45 42 37 38 39 42 51 53 51 45 46 49 48
56 77 83 83 88 92 95 96 96 98 98 95 86 81 85 82 82 76 72 69 67 71 70 68 66 65 62 58 52 45 46 47 43 37 39 43 49 49 50 45 46 49 50
48 71 87 82 84 91 93 97 98 98 97 96 90 90 87 83 83 79 78 75 75 75 74 73 73 69 65 60 60 49 46 46 38 37 40 46 51 43 45 47 54 54 53
41 54 60 83 91 92 92 96 96 96 95 93 93 91 89 85 85 82 82 80 79 80 81 80 81 78 74 66 61 58 46 45 43 46 50 57 50 48 50 51 59 64 63
37 44 51 59 77 92 92 94 95 94 94 93 93 91 89 87 88 81 80 79 79 81 81 80 80 80 79 72 62 64 59 53 48 53 64 64 51 50 56 57 64 60 60
32 37 45 53 64 87 96 95 97 98 97 96 91 89 90 91 90 85 80 83 81 82 81 81 83 82 80 71 66 62 57 55 64 64 63 58 54 51 50 51 50 51 58
28 32 35 47 57 64 84 90 95 96 97 94 94 89 92 94 89 87 83 83 82 84 83 83 80 77 80 71 58 59 59 63 70 71 67 64 65 68 69 68 64 64 63
26 27 31 36 46 54 61 70 78 81 87 90 93 92 92 86 86 84 84 82 80 80 77 80 77 76 77 76 72 60 61 65 67 67 68 71 73 76 78 82 86 79 70
27 25 28 31 36 44 49 56 59 64 69 72 76 77 74 76 80 77 78 77 82 79 76 78 76 73 71 68 69 72 67 66 66 66 66 70 75 80 93 97 91 90 80

GFSSE_prec_cthk_057.txt.gz
RH
42 29 32 37 44 50 56 64 67 69 65 63 63 63 63 63 56 42 32 31 30 29 30 33 34 34 30 25 25 28 31 30 32 34 33 32 31 33 37 38 34 33 31
40 35 37 41 49 54 58 60 63 66 72 70 67 64 69 64 61 49 37 30 30 29 36 31 31 32 28 27 28 30 31 31 33 34 36 32 32 32 35 34 33 32 30
36 44 46 47 51 55 56 56 57 60 69 77 73 74 75 67 67 51 40 34 31 35 32 28 27 28 27 26 28 30 33 32 32 34 34 35 35 35 34 31 30 29 25
42 43 50 51 58 59 60 55 55 63 65 75 72 77 77 76 75 62 46 38 37 36 31 24 27 29 27 27 28 29 33 32 32 34 37 35 36 32 29 24 23 20 18
42 45 53 55 57 60 64 58 63 64 72 74 77 80 81 85 70 61 53 41 36 39 31 29 28 24 25 28 30 32 32 33 37 40 38 34 30 28 21 18 15 13 12
44 50 52 58 61 64 69 68 69 71 73 76 83 80 81 76 68 60 43 47 43 36 32 35 26 27 29 31 32 34 35 37 40 39 35 29 26 22 14 11 10 9 9
50 59 57 61 68 71 75 83 85 80 80 76 77 77 76 76 62 55 52 48 39 29 33 29 31 30 32 34 35 37 37 41 40 35 33 27 25 19 15 11 9 9 9
45 56 76 72 72 77 78 92 88 88 86 82 73 76 76 75 61 62 50 43 37 36 32 34 33 34 36 36 37 36 37 41 41 36 33 26 24 22 16 11 9 9 8
40 47 61 82 79 82 79 87 92 91 76 77 77 75 74 76 66 65 49 47 48 48 40 38 37 37 38 36 36 38 39 40 40 36 31 26 25 20 17 12 12 11 11
45 45 53 68 84 88 78 84 93 98 96 86 87 78 73 65 64 58 54 49 52 52 45 41 38 39 37 36 38 35 39 39 39 37 34 30 26 20 16 12 13 13 14
51 64 62 70 77 88 87 86 93 91 98 92 93 85 75 64 64 60 57 51 54 53 48 42 41 38 36 38 33 36 40 45 46 41 33 33 28 27 18 17 15 15 15
69 76 68 76 84 85 87 85 92 88 97 93 90 87 87 77 75 71 58 56 63 54 49 44 39 37 38 37 36 39 44 47 47 40 34 31 29 30 22 17 16 16 17
78 76 78 87 88 81 81 90 97 93 90 93 96 88 88 90 74 69 59 67 61 57 50 46 43 42 47 46 41 46 44 47 47 41 36 34 34 34 23 19 18 18 19
70 71 77 89 88 81 80 89 92 98 95 97 95 93 93 93 78 68 65 70 63 59 51 48 50 60 59 53 52 51 48 50 50 45 42 41 36 34 31 24 22 23 24
66 68 73 87 89 81 79 81 85 93 98 97 92 95 93 89 72 72 74 70 65 63 58 54 65 64 62 59 55 53 54 57 53 50 46 41 37 41 38 36 29 28 29
61 67 70 75 82 88 89 86 88 93 95 95 96 98 94 85 79 77 83 72 66 69 66 62 70 64 59 57 55 55 56 56 57 53 47 44 41 43 40 39 34 34 35
49 55 64 67 77 85 90 90 89 97 97 98 98 96 91 74 81 84 80 77 70 73 72 72 69 63 56 54 54 53 52 53 51 59 52 48 47 41 41 45 46 41 42
40 49 63 73 79 88 91 91 94 96 99 99 97 94 81 76 85 83 79 75 73 74 73 73 68 67 63 55 55 52 52 53 54 53 58 57 45 44 44 49 49 48 40
35 47 73 82 74 85 91 93 98 97 99 98 97 87 79 88 89 80 71 73 70 69 71 72 71 72 70 65 57 55 52 55 51 50 51 44 45 46 42 44 49 42 46
33 43 64 81 79 87 89 94 98 99 99 97 91 85 84 88 85 76 72 76 71 70 71 72 73 71 69 64 60 57 55 53 46 45 43 41 43 41 52 56 49 44 48
32 37 51 57 76 85 88 94 98 97 98 96 89 83 86 84 83 78 81 80 73 75 76 77 74 73 72 69 68 60 59 51 49 48 47 43 45 54 57 56 53 54 53
30 32 42 52 61 81 92 90 95 95 96 92 88 87 87 86 85 84 82 82 81 80 84 83 80 80 78 74 68 66 67 60 49 48 48 46 56 58 60 55 57 59 59
27 29 33 44 59 70 89 93 93 95 97 94 92 90 90 90 88 83 85 89 84 85 88 86 84 82 80 78 74 75 73 68 68 54 53 54 58 65 66 63 63 61 61
25 26 29 36 49 60 74 90 91 91 94 92 92 91 90 88 85 87 88 89 88 85 85 86 82 81 82 83 73 70 67 68 79 82 69 63 66 70 71 69 66 68 72
28 24 26 29 39 50 62 68 79 84 84 88 89 90 91 89 86 89 91 86 84 83 82 83 81 78 76 76 79 75 63 58 58 58 67 79 77 76 74 73 78 73 75
31 27 24 27 31 40 49 54 61 67 73 77 79 85 92 89 91 91 92 84 79 82 82 80 81 77 74 75 76 76 78 78 73 72 72 70 73 76 71 74 75 78 84

GFSSE_prec_cthk_060.txt.gz
RH
39 31 26 25 34 43 48 48 51 56 57 58 57 57 54 51 47 42 37 33 31 27 24 25 22 21 22 24 26 30 31 29 26 29 36 36 35 32 32 35 34 33 30
43 31 27 28 37 42 49 53 56 57 61 64 60 58 57 55 53 46 37 33 32 29 34 34 33 28 23 24 28 28 26 27 30 32 35 34 34 35 35 32 31 31 30
40 28 30 34 41 44 47 51 53 55 58 66 68 64 60 58 57 48 39 35 32 34 33 28 29 26 27 29 32 30 29 32 33 35 34 34 33 35 34 33 30 26 26
32 30 33 38 43 50 52 52 55 56 59 62 69 67 65 66 59 61 46 39 36 34 31 26 24 27 26 30 30 31 33 35 37 36 34 34 36 37 32 31 24 20 17
33 38 33 41 47 54 57 55 64 66 68 70 77 75 75 78 73 76 58 42 35 33 27 27 26 25 32 32 37 33 36 39 42 36 36 36 36 35 28 23 18 14 13
34 46 40 41 52 58 66 65 68 68 66 67 75 80 78 87 81 78 65 49 38 33 29 29 27 30 34 36 33 34 39 45 48 42 33 33 30 27 23 16 13 11 10
36 46 47 48 54 62 72 74 73 73 76 66 76 79 82 84 83 74 63 48 42 43 33 33 33 36 32 32 32 37 44 49 47 41 32 25 27 24 18 13 11 9 8
35 36 42 55 60 67 78 79 91 94 96 84 83 81 81 76 79 67 58 51 43 34 37 37 34 31 31 31 37 42 44 50 45 37 27 27 26 25 17 12 10 8 7
30 34 42 50 66 74 82 85 96 93 98 98 90 76 74 77 79 63 54 45 42 44 37 40 33 33 34 37 40 43 48 52 41 35 28 27 27 23 18 12 10 9 8
43 37 40 53 59 87 86 85 97 85 88 98 93 78 72 74 74 63 53 50 50 41 40 40 35 35 37 36 43 48 49 46 40 32 27 28 28 28 21 13 12 11 11
58 49 47 57 62 73 82 88 86 91 82 99 94 79 77 72 79 65 67 64 56 55 47 40 37 36 34 36 46 47 46 47 38 33 27 31 29 27 18 16 14 13 13
56 55 64 69 72 74 74 87 91 89 85 98 95 85 85 66 76 77 76 69 55 52 46 40 38 38 33 40 48 46 46 50 40 34 29 34 30 22 18 18 16 14 15
56 61 63 68 78 82 83 85 84 88 90 98 98 94 89 78 77 78 76 72 54 50 46 41 39 37 37 43 47 51 49 48 40 32 33 35 31 24 21 21 18 17 18
52 57 57 65 83 88 89 82 83 90 86 95 98 91 85 83 91 87 76 71 56 55 51 42 42 42 40 50 54 46 51 51 39 35 32 36 35 29 27 23 20 19 20
46 51 53 59 72 85 86 86 88 85 83 86 91 94 88 89 90 89 77 75 63 63 51 45 48 53 51 60 60 54 54 52 40 37 37 40 35 35 30 28 26 25 26
35 39 45 53 62 77 82 82 88 89 86 83 92 90 95 91 92 93 77 75 73 62 50 52 60 61 60 62 59 57 60 54 45 41 39 43 41 38 35 33 33 30 31
31 33 40 52 63 67 79 84 84 87 84 87 92 91 94 94 91 80 80 75 75 63 56 57 68 63 63 60 58 56 54 58 52 49 45 45 44 41 42 37 35 36 38
27 32 39 61 66 67 76 85 89 88 86 89 93 96 95 94 91 85 78 82 73 70 61 68 68 64 61 60 56 53 53 55 60 53 50 48 45 41 44 41 41 45 44
29 32 37 58 68 69 76 87 88 88 87 90 94 94 94 86 85 91 86 86 72 86 71 70 69 64 65 64 56 55 55 52 52 52 52 50 48 48 45 39 40 45 47
26 31 37 49 66 66 79 79 82 86 90 92 96 94 93 87 90 98 93 96 89 91 80 70 67 68 71 68 67 58 56 54 50 47 50 54 51 45 38 42 46 51 51
27 30 35 43 51 63 74 78 84 89 94 95 95 91 96 87 87 90 90 87 79 78 72 72 69 71 71 70 71 70 60 57 53 49 49 48 47 46 47 44 50 52 56
25 28 31 38 45 52 71 80 83 90 95 97 97 91 89 82 89 87 90 79 81 78 73 73 75 76 73 72 71 70 63 57 56 53 50 46 44 48 56 56 55 56 63
26 26 29 34 41 52 70 84 87 88 92 94 95 90 86 89 88 88 84 77 78 76 79 82 79 76 75 74 73 69 69 67 66 65 61 53 53 53 53 59 64 61 63
26 24 26 31 37 49 61 78 86 86 88 90 90 88 89 88 87 87 85 82 79 78 80 86 85 81 80 77 76 73 72 73 81 88 75 68 62 58 61 63 66 69 69
32 22 23 29 33 40 50 63 71 77 82 82 85 88 88 89 86 85 86 84 81 81 83 93 87 82 80 80 83 77 72 69 69 73 78 86 83 70 67 69 72 72 72
44 26 23 26 31 35 42 51 59 64 69 77 77 82 87 86 86 84 84 85 87 84 83 88 84 78 75 73 80 85 78 72 66 63 63 68 69 72 72 73 76 72 70

GFSSE_prec_cthk_063.txt.gz
RH
41 42 44 32 25 29 32 35 40 43 49 49 50 51 48 46 43 42 44 41 38 30 24 22 25 29 32 30 30 31 37 38 33 33 34 36 41 40 40 42 44 38 34
36 36 40 32 26 32 39 43 43 49 55 56 56 56 52 50 47 42 39 38 33 28 23 24 26 27 27 28 30 31 33 31 30 32 36 37 34 35 35 35 32 32 32
39 36 36 26 31 39 43 42 51 51 55 57 58 57 55 55 52 40 32 39 38 34 34 32 28 23 24 27 29 29 28 33 34 35 35 34 37 37 36 35 33 31 28
30 24 25 27 32 38 47 52 50 50 54 58 59 63 70 62 58 50 38 36 42 42 35 33 27 27 28 32 33 35 35 36 33 34 34 37 37 35 35 32 26 24 19
30 31 32 34 35 41 48 56 62 58 56 56 63 64 65 61 61 54 46 38 41 43 31 33 26 28 30 28 32 34 36 38 34 36 36 36 35 35 32 24 18 15 13
31 35 36 40 40 47 51 58 64 65 66 67 68 66 67 65 63 62 53 44 42 38 34 28 28 32 30 34 37 37 41 40 38 38 39 35 33 30 23 17 13 12 10
27 33 37 43 45 49 59 64 63 67 76 81 80 77 70 79 78 70 63 46 43 43 36 33 31 32 33 38 43 43 43 42 40 37 35 31 28 27 21 16 12 11 11
27 28 34 38 48 57 62 78 77 76 86 92 92 82 76 82 80 74 73 54 43 33 28 32 34 37 40 41 43 44 46 41 41 36 29 27 26 26 22 15 12 11 8
28 33 38 39 44 55 64 70 84 89 97 98 98 86 78 83 78 72 75 60 45 37 36 38 42 43 44 45 44 45 42 40 34 29 24 27 27 25 22 16 12 9 8
35 45 41 47 49 55 66 76 78 86 93 92 96 98 92 92 69 71 66 66 49 41 38 43 39 45 42 44 46 46 46 41 35 26 24 25 25 26 20 15 12 11 10
44 50 51 47 53 61 67 77 87 90 92 89 90 96 96 84 66 74 63 48 45 46 47 41 44 47 42 45 47 47 47 39 31 24 22 23 27 27 21 17 16 14 12
46 51 50 48 50 58 64 72 81 86 92 94 90 91 96 82 70 65 63 47 45 50 46 43 47 42 43 46 51 51 45 39 33 27 22 23 28 29 23 17 18 16 14
44 48 54 57 60 67 78 79 75 81 84 93 86 90 95 83 72 60 61 53 58 58 50 46 48 39 44 49 52 50 48 41 38 31 23 26 26 24 21 20 19 17 15
39 43 49 52 60 66 81 87 85 81 83 85 85 94 94 86 69 77 79 71 69 53 51 51 40 39 46 53 55 52 48 43 38 31 27 26 28 27 24 23 22 20 19
33 38 40 47 53 63 72 82 84 82 83 87 97 96 92 82 78 76 84 82 73 57 45 40 36 44 51 52 54 56 51 45 40 34 28 29 30 31 28 27 26 24 24
29 33 36 44 54 66 72 76 85 86 86 86 91 92 89 86 80 84 84 73 70 55 44 41 38 51 53 53 57 66 57 46 44 37 31 32 34 35 33 31 31 30 29
25 30 35 44 63 68 72 71 78 83 83 84 85 86 87 84 86 88 82 76 72 56 51 51 49 53 57 56 63 62 60 52 47 39 34 36 39 40 36 36 35 35 34
25 26 35 43 66 75 73 73 78 79 82 81 85 88 88 88 90 90 85 78 76 65 60 60 57 60 62 59 64 63 60 55 49 46 43 44 43 42 39 40 40 37 39
25 25 32 40 59 71 77 84 86 87 85 86 86 89 89 88 89 90 81 77 75 70 65 64 65 66 67 61 60 62 59 55 55 51 51 50 48 46 42 41 42 39 40
24 24 29 38 50 64 74 82 86 87 91 92 90 89 91 93 90 86 82 76 74 75 70 69 71 75 65 61 61 61 58 58 52 52 50 48 47 46 46 47 48 48 44
25 23 27 33 43 55 67 83 86 86 87 89 92 94 92 90 87 91 85 82 86 89 77 71 74 73 70 67 67 68 65 58 57 56 50 44 44 44 48 48 49 48 45
27 23 25 29 36 46 57 72 81 84 87 93 96 97 94 95 91 90 87 91 91 93 93 85 74 76 78 73 73 76 72 68 61 54 52 52 50 51 48 45 50 47 49
30 22 23 26 33 40 55 73 78 81 87 91 96 98 97 92 90 90 90 95 94 93 95 91 74 77 78 84 82 81 75 69 62 58 54 52 55 55 51 48 52 54 54
33 22 21 24 30 36 48 65 70 74 82 85 91 96 93 90 93 91 94 95 95 94 87 82 75 73 83 82 81 78 74 70 68 65 65 67 65 62 56 53 55 57 58
37 27 20 24 27 33 40 50 62 67 76 80 84 90 94 92 86 91 92 90 88 80 77 73 73 78 85 80 79 77 74 72 72 71 77 81 78 79 72 67 62 60 61
37 37 23 23 28 32 36 42 47 55 60 69 75 82 86 84 84 84 87 84 80 76 77 75 75 80 85 81 80 75 74 72 71 69 70 69 67 67 72 70 69 68 70

GFSSE_prec_cthk_066.txt.gz
RH
32 34 34 36 37 31 31 33 34 38 39 40 41 45 49 50 55 58 55 56 53 47 34 27 24 29 39 32 35 38 38 38 36 44 45 44 44 45 44 42 42 41 39
33 31 33 35 36 34 31 37 39 38 40 45 46 48 52 53 51 54 52 51 45 35 29 25 24 32 31 30 33 36 37 38 36 38 39 41 45 43 43 43 40 36 34
35 35 34 34 36 32 33 41 45 46 47 47 51 48 51 48 45 45 46 46 38 34 26 26 31 33 31 32 32 37 37 33 33 36 36 38 36 37 37 37 33 32 29
25 25 26 30 31 33 36 41 47 52 54 53 49 50 52 52 49 45 41 39 36 34 33 32 33 33 30 31 31 31 33 34 36 38 35 34 35 35 32 30 28 27 24
24 25 28 32 34 38 41 43 47 52 55 59 56 54 54 54 52 47 43 43 42 39 47 41 34 30 34 33 32 33 34 36 35 36 32 34 32 33 31 26 22 20 16
28 26 25 30 38 41 47 49 52 53 59 64 63 63 62 59 53 49 47 48 52 43 39 45 35 34 40 41 35 35 33 35 34 35 35 34 33 33 25 21 18 14 12
32 28 28 27 33 41 47 57 59 60 62 69 67 67 69 64 53 50 43 48 53 41 36 40 48 39 33 35 33 34 34 37 39 36 36 35 31 25 20 17 15 12 11
31 30 30 33 34 41 47 66 70 68 74 73 72 78 76 77 75 68 58 49 48 40 37 37 40 40 42 38 35 40 40 38 36 35 35 32 28 24 18 17 13 13 13
29 26 30 40 45 41 45 55 83 97 90 92 94 96 90 88 76 71 63 54 47 40 36 39 41 46 43 39 41 41 45 39 40 34 26 30 28 23 18 14 13 14 14
23 28 40 49 50 47 45 53 67 75 89 95 94 98 97 95 86 79 70 66 45 37 43 47 44 45 42 47 46 51 44 42 37 28 25 30 26 24 18 14 14 13 12
23 37 46 50 50 52 49 54 63 76 88 92 93 92 93 97 93 75 69 72 64 41 39 39 39 48 52 54 51 49 45 43 33 26 27 29 25 23 18 17 18 15 14
24 38 45 48 46 52 53 55 61 70 85 86 90 91 90 96 95 82 74 63 56 47 46 45 52 53 55 53 57 49 46 38 29 25 28 29 26 22 19 19 18 16 14
23 35 40 46 50 53 56 63 72 76 79 82 84 87 91 92 97 80 72 59 59 57 58 51 53 58 58 59 50 47 44 39 34 26 26 27 23 21 20 20 19 18 17
22 29 33 40 43 49 61 64 77 82 79 81 80 86 87 97 89 78 71 60 47 48 45 47 49 56 58 57 52 45 45 42 37 31 28 26 25 23 21 21 21 20 20
23 25 28 34 40 47 61 63 75 83 82 83 83 83 85 90 85 71 59 58 51 47 50 50 47 55 71 60 50 46 49 43 42 33 30 28 26 24 24 24 24 25 26
26 23 26 29 36 46 61 67 76 88 85 88 88 90 93 91 80 76 65 68 62 57 56 53 54 59 65 58 52 51 51 48 46 38 33 30 30 29 29 29 29 31 30
30 24 24 27 34 51 64 68 74 87 88 88 95 98 94 87 85 82 81 79 79 72 61 51 50 55 55 56 60 57 55 52 49 42 35 35 31 31 34 36 34 34 34
33 26 22 26 34 57 68 69 71 83 86 89 89 93 95 88 82 74 79 79 79 73 60 49 49 53 52 59 65 62 63 56 54 41 41 35 35 35 40 40 37 37 36
35 26 21 27 33 53 62 72 79 83 90 90 91 94 93 92 87 80 84 77 69 64 57 46 52 51 53 63 68 67 62 60 58 48 46 42 40 42 43 43 40 40 38
36 29 21 26 32 46 59 72 83 87 90 91 91 90 90 93 89 87 86 80 73 68 63 55 51 54 57 63 71 69 66 64 61 57 52 50 50 50 46 45 42 43 43
35 30 21 26 32 42 55 66 85 86 89 91 91 90 90 89 90 90 87 83 76 76 68 64 60 61 64 70 73 75 70 67 62 60 56 54 52 51 48 46 43 48 50
38 32 21 22 31 40 50 67 78 85 90 95 95 95 93 93 94 92 91 86 82 78 72 71 68 67 72 76 72 74 77 71 63 59 56 53 52 49 47 44 42 49 55
38 32 20 19 27 36 50 70 81 85 88 91 95 96 96 97 95 94 92 86 83 85 79 80 78 73 77 79 76 78 78 75 73 68 60 54 51 50 49 46 46 49 56
37 37 20 18 26 33 42 66 73 78 82 84 88 95 99 99 97 95 93 91 90 90 90 89 82 73 76 79 82 82 83 85 76 67 64 60 57 55 55 54 53 48 46
42 38 27 17 24 31 36 45 62 67 74 82 89 95 98 97 96 96 95 97 95 94 94 95 92 86 75 77 82 83 87 87 78 72 70 66 65 68 68 67 65 57 57
41 42 36 19 25 29 35 40 44 52 64 74 83 92 94 97 97 98 97 96 97 95 94 96 92 90 79 82 80 86 84 80 77 75 73 71 74 78 76 73 74 71 67

GFSSE_prec_cthk_069.txt.gz
RH
28 28 30 32 32 32 32 32 29 34 44 46 48 51 54 53 50 48 51 52 52 51 46 37 36 35 38 43 59 60 50 33 37 41 46 46 50 45 46 45 43 43 42
29 27 28 32 32 34 34 32 30 31 38 42 45 46 49 50 52 53 54 57 54 50 43 35 32 31 39 42 41 43 35 34 43 44 47 47 45 46 44 43 42 38 38
27 29 31 35 34 35 35 34 32 33 34 39 43 46 48 49 50 53 52 54 54 47 37 30 30 34 38 33 30 30 33 32 43 39 41 40 46 42 44 43 37 32 33
21 22 24 25 27 30 33 34 35 40 41 39 48 53 51 47 45 44 43 46 45 41 35 31 32 37 36 32 31 31 34 34 35 37 38 40 39 37 37 35 30 33 32
22 23 24 26 26 30 34 37 38 43 48 52 50 49 55 51 51 46 42 38 37 36 35 34 42 38 36 32 33 36 33 33 34 36 38 37 36 34 33 28 25 25 26
27 27 28 27 26 27 35 40 43 47 51 56 58 56 53 52 50 44 41 38 39 35 39 38 46 44 36 31 31 30 35 37 36 35 35 36 38 31 27 22 20 18 17
28 28 29 26 26 26 32 42 48 54 54 58 57 66 61 57 54 51 43 42 48 51 46 40 38 53 42 37 32 31 36 38 35 34 37 38 35 30 23 19 17 14 12
27 28 30 28 28 32 35 44 56 68 70 68 64 60 77 65 60 57 57 47 49 52 49 41 44 44 41 35 36 34 37 36 36 38 38 35 33 24 21 17 16 15 12
26 27 26 29 35 53 55 52 57 73 94 93 87 80 96 76 74 67 63 57 52 42 46 45 41 39 45 47 38 37 38 40 43 40 32 34 30 27 21 18 18 17 12
27 26 22 33 44 49 57 53 56 66 77 98 95 94 92 93 92 90 80 71 64 49 46 43 37 41 45 37 36 44 45 51 45 38 30 30 32 29 22 21 16 15 12
27 24 24 36 43 51 51 48 52 60 71 75 84 95 96 91 94 93 81 71 62 49 46 44 44 43 43 39 43 47 53 47 39 33 28 34 31 28 28 22 20 15 14
27 24 25 37 41 41 47 52 50 56 61 70 80 88 93 89 93 93 90 75 62 54 54 53 48 46 44 49 53 53 52 44 36 31 28 34 29 27 24 25 21 18 15
27 23 25 33 37 39 41 49 54 57 68 74 82 96 93 90 93 97 94 77 72 70 55 54 54 54 45 49 57 57 50 38 36 30 32 32 29 28 25 23 20 18 16
27 20 23 28 31 35 40 50 58 66 78 80 86 91 89 85 89 92 94 77 66 69 60 53 50 47 52 61 65 61 46 44 35 29 32 34 29 32 28 23 20 18 18
28 23 20 25 29 31 34 48 61 67 75 86 88 90 84 87 91 91 89 72 59 59 55 56 58 55 58 61 58 53 52 47 40 31 30 33 31 31 28 23 22 21 22
29 30 23 22 25 28 33 46 60 66 77 87 87 89 88 91 92 91 87 69 56 55 59 55 58 58 55 56 59 57 54 49 43 36 32 31 33 33 27 25 25 27 28
30 31 25 22 25 28 35 56 63 68 84 92 94 92 90 91 97 91 80 62 57 54 47 45 55 60 56 72 73 62 53 52 48 42 34 33 34 31 28 28 30 34 34
35 31 27 20 25 28 38 55 63 65 82 90 95 96 97 96 95 84 72 55 55 61 53 50 57 65 64 65 62 64 55 55 54 48 39 37 36 34 32 34 36 37 37
42 34 29 19 23 29 40 54 64 73 77 85 94 99 98 98 91 85 76 67 63 65 62 61 63 67 65 60 60 68 65 61 62 51 44 41 40 40 38 37 38 40 40
44 38 30 19 22 28 42 54 65 79 80 84 89 95 99 96 93 90 83 75 72 75 75 70 64 71 65 61 63 68 74 65 66 59 50 44 45 45 42 41 42 43 42
42 37 31 18 21 27 38 49 62 79 81 84 88 93 94 96 95 90 87 81 77 75 74 71 67 66 60 63 64 70 77 78 72 69 58 53 52 51 49 49 49 45 46
44 41 33 19 19 24 34 48 64 81 82 85 87 91 93 94 95 94 92 89 80 73 70 63 63 62 61 61 67 71 76 79 75 73 70 63 61 59 57 55 51 47 47
42 40 34 20 17 23 30 54 67 77 82 85 88 93 90 91 96 98 97 94 87 81 77 71 69 64 57 63 68 71 79 79 77 76 69 64 64 60 58 54 48 44 43
43 41 38 25 17 22 28 49 61 68 79 84 90 92 96 94 93 97 95 97 90 84 85 85 78 73 68 68 73 79 80 75 76 76 72 71 66 58 56 53 50 48 46
42 45 41 30 17 21 28 36 51 61 68 76 84 89 93 99 96 95 97 98 96 91 88 91 89 81 74 71 72 83 84 77 82 80 83 76 70 65 60 56 56 58 57
45 45 45 34 22 23 27 33 41 49 55 62 74 83 89 96 97 98 98 97 97 95 93 91 92 89 84 83 78 78 74 81 82 87 83 79 75 73 74 75 77 74 73

GFSSE_prec_cthk_072.txt.gz
RH
32 29 28 26 27 29 29 30 31 29 30 33 39 50 56 58 56 51 48 45 44 42 38 41 45 48 45 41 40 46 41 41 37 39 43 45 47 44 45 49 43 44 44
27 27 27 27 26 30 30 31 31 29 29 32 39 48 56 60 59 58 54 53 49 46 47 44 39 40 40 43 56 57 42 31 36 46 47 48 45 44 43 42 42 44 45
30 27 25 28 29 32 32 28 29 32 31 34 40 44 52 57 60 63 62 56 58 54 49 43 39 36 36 47 48 45 35 33 40 47 48 46 46 44 41 44 42 42 38
24 20 20 21 22 25 27 29 31 36 36 37 38 40 45 50 60 64 61 56 52 57 48 41 37 37 39 47 38 33 32 35 39 42 44 45 46 44 41 44 35 32 32
21 19 21 22 24 26 27 30 34 38 40 41 40 42 47 47 65 54 52 51 49 53 48 42 35 40 43 37 35 31 31 31 38 37 39 42 42 39 39 37 30 32 31
20 22 23 23 25 26 28 30 34 39 42 45 46 50 53 56 50 56 53 50 47 45 47 50 38 45 44 36 35 33 31 30 31 37 38 39 38 40 35 31 28 29 28
24 23 23 24 26 25 30 33 36 42 48 51 52 56 66 56 57 55 54 50 47 43 41 45 40 42 44 41 38 33 29 32 35 35 37 37 38 38 28 23 20 21 19
27 24 24 25 25 28 34 39 50 62 61 67 67 64 65 68 85 66 62 51 47 49 49 51 44 41 42 44 42 40 34 32 34 34 35 41 43 34 29 22 18 17 15
29 24 24 23 23 30 42 54 65 68 76 81 91 95 90 86 83 85 77 69 61 58 58 56 50 43 39 42 40 39 33 32 37 40 42 44 39 33 27 19 19 18 15
28 26 23 21 26 37 47 58 67 66 65 75 87 83 99 94 93 91 92 83 66 61 56 47 49 48 39 37 41 44 38 41 38 42 47 39 35 30 25 22 21 19 18
29 27 22 21 27 38 46 54 63 63 64 68 75 80 90 95 96 92 96 94 80 68 57 45 48 50 40 38 43 48 37 38 48 51 44 39 34 31 28 23 22 20 17
31 27 23 22 26 36 41 48 51 52 54 61 70 75 87 91 95 97 94 94 91 74 61 56 44 46 39 39 45 40 35 45 48 47 37 35 34 32 30 24 19 19 19
31 26 24 22 26 32 35 39 48 50 53 64 70 80 77 85 91 97 94 95 91 71 57 58 49 46 43 38 41 42 44 53 45 43 34 37 35 30 29 26 23 22 21
32 29 24 22 24 28 31 38 40 46 57 62 69 75 79 90 96 91 92 92 94 68 64 61 54 55 45 41 45 53 55 54 41 36 35 38 33 32 32 30 29 21 19
33 30 26 26 25 24 28 34 38 44 56 67 73 84 87 96 93 90 94 94 94 75 73 63 57 51 50 54 56 64 59 60 36 34 37 38 35 35 33 32 28 24 22
34 32 28 28 27 25 25 31 38 51 61 66 71 84 93 92 88 90 93 95 91 81 77 72 59 49 49 57 56 63 71 48 41 40 36 37 35 35 34 32 27 26 26
35 35 31 30 29 25 26 32 39 56 65 69 81 92 90 90 90 91 95 95 86 75 70 62 61 54 52 52 60 63 65 51 53 41 36 33 35 33 31 28 28 28 32
38 41 37 33 29 26 28 31 44 60 67 72 90 97 96 95 95 94 96 96 83 67 63 64 65 64 62 60 65 56 64 63 56 47 39 35 34 32 32 30 32 35 35
42 44 44 35 27 26 27 32 46 58 67 76 91 96 98 98 96 96 96 91 83 65 64 69 57 62 59 60 59 69 71 67 57 53 45 41 40 36 35 36 37 37 38
45 48 46 36 26 25 27 32 44 59 67 83 90 95 99 99 97 98 98 92 74 59 72 69 64 64 64 66 63 66 66 71 62 61 51 46 45 43 40 39 39 40 41
47 51 42 37 24 24 25 32 43 60 73 86 91 95 98 99 98 98 90 85 65 59 69 69 71 71 68 70 63 71 63 76 77 68 58 54 49 49 46 45 44 43 44
46 45 45 36 23 23 26 31 50 66 80 87 92 94 95 98 98 97 91 84 71 72 71 75 77 81 77 77 76 71 69 73 74 79 74 65 57 60 56 54 53 49 50
45 44 45 37 25 21 26 31 56 64 76 85 89 93 97 94 94 93 95 93 83 79 77 77 80 84 79 82 72 66 65 69 72 82 84 76 71 68 64 64 59 58 57
46 43 45 39 30 19 26 29 51 58 75 81 85 90 93 96 97 98 97 95 94 85 81 75 75 74 75 69 69 66 64 69 69 75 76 77 72 71 69 65 61 59 57
50 44 46 43 32 18 27 30 40 57 65 72 79 87 92 95 96 97 98 96 96 94 87 76 80 68 77 74 68 63 63 70 73 78 73 75 71 71 64 65 62 57 55
50 45 47 47 37 21 25 31 37 46 54 61 69 78 86 92 97 95 94 99 97 95 90 83 79 79 82 78 72 69 70 73 76 82 78 81 81 75 73 73 65 64 67

GFSSE_prec_cthk_075.txt.gz
RH
25 24 25 24 22 22 24 27 32 37 36 34 38 41 47 51 58 55 52 49 47 45 46 50 50 51 50 50 47 42 40 38 36 37 41 47 49 44 43 48 45 46 48
25 26 25 24 22 21 22 26 30 35 34 34 36 41 45 51 54 52 56 55 52 49 45 46 47 50 50 44 43 47 46 43 35 38 48 45 44 44 46 45 42 46 52
24 26 27 25 23 22 25 27 29 31 32 33 35 39 44 52 53 55 57 58 61 60 56 54 47 43 42 44 50 55 43 32 36 43 52 46 45 45 43 42 44 45 46
28 27 24 21 20 20 21 24 28 31 33 36 39 42 46 51 53 52 54 57 62 68 65 58 49 40 40 44 50 51 38 31 38 45 48 47 48 45 42 45 48 42 37
25 25 22 20 20 21 22 26 28 30 32 37 44 47 49 50 51 56 62 57 52 53 62 61 53 44 41 46 48 41 32 36 38 41 44 46 51 45 52 46 41 36 32
25 27 25 22 22 24 23 26 27 30 37 40 45 47 46 48 50 51 64 53 51 51 54 63 65 42 43 46 40 36 33 34 39 37 39 42 46 44 46 45 35 34 31
28 29 27 25 23 27 26 28 30 34 39 44 52 53 54 55 54 57 61 64 60 55 54 54 64 48 45 44 36 34 40 34 32 35 37 41 44 41 41 34 34 31 31
31 31 29 25 26 28 28 32 35 43 50 60 66 65 68 73 73 74 70 71 67 49 50 50 51 45 48 40 40 37 42 31 31 37 40 39 41 43 37 29 27 25 26
33 32 29 25 25 27 32 37 46 56 63 72 80 87 95 96 98 92 85 83 64 57 48 54 55 49 45 38 50 43 45 37 40 34 35 38 46 42 33 25 18 18 18
33 32 28 25 24 25 33 43 47 54 65 71 72 75 89 97 94 97 93 85 80 62 60 60 62 57 55 40 45 42 44 42 32 33 39 42 47 40 31 24 17 16 16
35 33 27 25 23 24 34 43 47 54 61 63 67 74 86 80 77 87 92 89 91 87 74 68 61 52 58 45 44 41 38 36 37 38 45 45 43 37 32 27 21 17 15
35 35 28 25 23 24 32 37 44 51 61 64 63 68 72 78 80 82 89 93 96 88 84 67 58 54 55 50 42 41 42 48 41 45 51 48 42 36 33 30 24 21 19
38 35 30 25 23 25 30 32 35 41 47 50 56 63 71 71 80 82 89 95 98 97 87 72 67 55 46 46 40 40 42 40 37 43 47 46 40 36 33 29 23 23 20
41 37 31 26 25 29 28 30 34 37 39 40 47 61 65 74 81 82 89 95 97 98 89 70 67 57 43 43 40 41 45 38 42 48 46 42 39 36 32 29 26 24 22
41 39 33 28 27 30 31 30 33 35 36 49 57 67 71 79 82 87 93 94 97 96 90 66 65 55 47 43 48 42 42 38 43 49 49 41 40 37 33 32 27 23 21
42 42 35 30 29 31 32 30 31 35 36 50 66 73 72 79 86 90 95 93 97 95 87 65 64 63 55 57 49 45 48 50 48 56 42 41 41 37 35 32 30 27 26
45 43 37 37 36 33 32 30 29 32 39 58 68 70 75 82 94 97 96 96 97 96 80 72 69 66 61 58 53 54 60 60 59 55 38 44 42 39 36 34 31 32 32
49 44 41 43 40 34 29 27 29 35 47 62 65 70 83 94 97 94 92 94 98 96 87 82 84 66 59 55 58 59 66 67 62 43 42 45 42 41 38 34 32 33 34
48 44 44 47 44 36 28 28 30 39 52 62 70 74 95 98 95 93 93 96 98 94 90 82 76 69 63 63 58 59 64 66 65 52 48 44 44 43 41 36 33 35 38
46 43 45 49 46 38 28 29 33 44 53 63 72 83 93 98 98 94 97 98 98 97 80 75 69 71 72 62 60 61 63 68 73 76 56 46 46 44 42 43 42 41 39
46 43 46 49 47 39 26 28 32 43 58 71 82 91 93 97 99 99 97 99 98 95 78 66 67 67 69 65 65 66 70 79 79 77 62 51 48 47 47 46 46 44 43
46 43 42 46 48 38 23 28 34 58 72 81 88 92 91 96 98 98 98 99 95 91 76 67 69 66 66 64 69 73 74 76 74 73 74 58 51 48 49 49 51 49 47
45 43 38 46 46 39 25 29 38 61 68 81 88 92 91 95 99 99 98 97 94 88 68 66 71 76 73 70 70 71 72 71 68 68 77 77 69 62 58 54 54 55 52
43 43 43 46 45 40 26 29 38 60 65 81 86 92 97 95 94 99 99 95 92 81 65 66 73 77 79 83 85 77 76 75 72 70 73 72 75 76 72 70 67 67 67
47 45 44 48 46 39 27 29 38 51 64 70 77 87 92 96 96 94 92 91 91 83 74 72 70 78 83 84 81 83 79 66 63 61 66 69 75 77 77 70 69 66 70
46 46 47 49 52 43 29 30 36 46 55 63 69 76 87 92 97 97 96 95 93 89 82 78 79 78 78 81 82 81 74 67 64 62 64 67 72 76 79 74 67 69 64

GFSSE_prec_cthk_081.txt.gz
RH
24 19 19 19 20 20 23 26 26 26 29 33 34 33 35 35 39 43 39 40 38 40 46 50 54 58 57 53 55 58 57 53 48 43 41 44 54 58 53 53 64 56 54
22 20 18 18 18 19 22 23 24 24 26 32 33 36 37 37 43 45 44 43 40 43 44 49 52 55 53 52 53 55 52 49 45 42 44 55 62 55 47 61 64 49 54
21 19 19 18 19 19 20 20 22 24 26 28 33 37 40 40 44 47 51 49 46 47 45 46 47 49 49 50 49 48 47 43 45 46 56 62 54 52 47 57 48 51 56
22 19 18 18 19 20 20 20 20 20 24 26 32 37 42 42 45 55 57 52 53 54 53 49 47 48 47 49 49 51 50 48 47 48 56 63 55 50 48 48 50 57 57
23 22 20 19 18 18 18 18 20 22 24 27 30 32 37 42 50 59 64 57 59 59 60 66 58 54 45 42 44 56 48 44 50 63 66 60 55 52 47 48 57 61 61
25 25 20 19 18 19 19 19 19 22 25 27 31 33 37 41 49 63 67 63 61 62 65 70 71 67 56 39 41 51 57 53 57 64 66 67 49 55 54 54 61 55 48
27 28 22 21 19 19 20 19 21 22 25 28 32 37 43 47 56 69 72 68 65 66 71 68 67 67 64 41 40 49 55 49 56 74 68 63 53 58 59 52 52 42 37
30 30 24 24 22 21 21 20 21 24 27 29 34 49 64 75 85 86 78 81 82 88 80 76 64 63 66 49 44 51 49 45 63 70 57 66 60 56 46 44 44 40 38
33 29 26 24 24 23 23 23 21 24 30 32 45 54 60 81 86 98 96 94 91 92 86 79 68 61 63 56 48 47 44 46 66 70 45 52 45 44 47 48 44 40 39
34 30 29 25 26 26 25 24 23 24 32 34 40 46 54 67 85 87 90 98 96 89 93 89 74 61 65 60 45 45 43 45 57 55 48 39 36 40 45 45 42 40 37
37 34 27 28 28 30 27 27 25 28 31 38 42 47 54 64 70 75 87 95 98 93 95 95 71 59 68 65 50 43 44 45 49 56 44 37 32 32 41 40 41 40 31
41 39 34 30 31 33 36 35 32 31 31 37 46 55 59 65 69 77 80 83 85 89 85 90 80 72 73 72 67 50 48 59 52 60 46 37 32 34 36 34 33 31 26
45 43 42 35 34 35 39 37 38 36 33 38 47 59 62 63 66 66 83 83 78 87 86 87 90 84 82 74 66 50 57 66 57 58 45 36 32 35 36 35 31 31 26
47 46 45 41 40 39 43 40 40 41 37 37 40 49 60 54 56 60 72 71 73 77 88 93 91 93 83 79 72 58 64 54 64 53 43 36 34 36 40 37 37 33 27
53 49 46 43 41 37 36 36 37 40 40 39 40 41 58 49 55 62 70 68 72 77 90 93 93 94 91 85 75 57 58 55 53 51 45 40 38 44 41 40 39 37 28
48 50 48 43 39 39 38 41 38 34 34 33 35 39 42 50 52 59 66 71 77 80 94 97 98 95 91 87 80 62 58 56 45 46 44 39 41 49 42 44 39 36 31
44 51 49 44 41 44 44 44 38 31 32 33 33 36 47 50 58 67 69 68 73 86 95 98 99 96 91 88 76 63 57 50 44 44 47 43 45 50 42 42 47 37 34
43 50 49 46 44 49 48 50 38 32 31 30 32 36 44 51 60 65 70 70 84 91 97 99 97 96 93 85 66 56 53 48 46 42 47 48 46 47 47 52 45 38 34
45 47 49 46 47 49 50 49 39 32 26 29 32 39 41 48 65 77 76 78 90 91 96 99 97 96 93 79 69 58 51 51 48 47 54 58 52 54 52 54 44 39 36
47 45 51 47 52 55 50 50 43 27 24 25 29 38 48 60 65 77 80 89 92 93 97 98 96 95 84 84 74 65 60 59 54 54 57 62 60 54 51 53 44 37 35
48 45 48 46 54 54 51 51 43 26 24 24 32 44 53 59 68 75 84 94 97 95 97 98 96 93 85 79 78 72 68 67 66 63 64 59 60 56 62 60 50 40 33
44 45 46 50 53 53 54 52 42 29 25 28 44 54 62 72 80 80 89 96 98 96 96 97 97 94 85 86 79 76 75 72 70 62 61 63 61 66 65 68 59 47 44
39 43 46 52 52 53 55 50 42 30 27 32 49 56 70 84 87 91 92 94 95 97 98 97 95 92 92 91 78 68 69 67 66 64 66 63 64 66 75 70 62 51 49
38 44 48 51 51 55 56 45 41 30 27 35 50 60 75 84 93 92 93 92 95 98 99 92 94 95 94 86 83 76 70 66 66 67 67 68 72 71 67 67 64 54 51
40 43 47 56 55 56 56 46 41 32 34 35 48 55 65 81 88 92 94 95 97 96 97 97 96 95 92 84 76 77 76 73 76 77 73 70 69 68 64 66 68 68 70
42 41 45 56 58 59 54 48 40 32 33 36 44 50 60 78 90 93 98 99 99 98 98 98 94 91 89 85 74 71 78 80 79 75 78 79 72 69 68 66 64 67 73

GFSSE_prec_cthk_087.txt.gz
RH
24 21 19 17 14 15 16 16 17 19 22 23 24 26 28 29 30 33 35 37 37 38 36 37 43 46 51 57 65 64 64 68 67 65 63 61 54 48 58 61 59 59 58
24 21 21 18 14 14 14 14 16 19 22 23 23 26 27 29 33 35 36 37 35 35 37 40 44 49 56 58 60 58 60 61 60 58 53 51 46 54 57 58 60 61 55
26 22 21 18 14 13 13 14 15 19 21 22 23 26 28 30 32 35 40 40 41 41 42 42 45 50 55 57 54 55 56 54 54 50 48 46 51 57 60 60 58 61 55
22 23 21 18 14 14 14 15 15 18 21 23 24 26 29 33 34 36 40 43 41 45 45 47 47 50 55 54 53 53 52 51 48 48 48 53 56 61 60 59 57 57 56
25 24 22 18 15 15 15 15 14 16 18 21 25 27 31 33 39 43 44 46 45 49 51 54 52 49 50 52 52 50 51 53 53 56 56 57 61 64 62 55 54 51 57
23 22 20 18 15 14 15 15 15 16 18 20 23 26 30 34 37 40 48 51 53 54 57 65 62 56 50 51 49 52 57 54 54 57 61 60 65 67 64 53 52 53 59
21 19 19 16 15 16 16 16 16 15 17 20 23 26 29 34 36 38 45 56 64 69 74 79 69 64 58 56 50 50 53 50 49 56 67 65 67 66 62 55 52 56 53
18 17 17 15 15 17 17 17 17 16 17 19 22 26 28 33 36 42 48 67 84 96 93 94 84 73 67 66 58 50 54 58 58 59 70 69 65 71 60 55 54 53 46
21 18 17 16 16 18 18 19 18 18 17 19 21 23 29 32 37 47 57 63 70 88 96 97 92 82 75 71 64 52 54 62 63 59 64 65 66 72 70 60 56 47 41
25 22 20 19 18 19 20 20 20 19 18 19 20 24 32 31 38 44 51 59 73 78 84 98 98 92 79 76 68 63 53 55 60 63 66 69 69 74 73 62 44 40 43
27 23 22 21 20 20 21 22 21 21 21 20 23 27 30 33 38 41 52 68 69 73 70 79 98 95 89 82 79 65 64 66 72 59 71 78 62 67 64 49 42 43 42
30 25 23 24 22 22 22 24 23 23 23 23 26 27 29 35 40 44 52 62 67 72 77 81 99 96 90 81 77 72 66 64 55 61 70 65 47 42 39 38 37 40 40
35 27 24 26 25 22 23 25 25 26 27 26 28 30 31 35 40 47 58 64 70 79 74 81 97 94 90 81 76 70 72 69 46 50 52 51 43 38 33 29 32 38 38
32 36 27 26 29 25 24 25 27 30 31 30 32 33 34 35 42 51 62 65 61 60 70 76 93 91 88 82 77 71 74 70 70 51 49 47 42 39 32 29 32 38 37
25 34 31 30 33 31 26 27 30 33 34 35 34 34 36 38 39 45 55 62 55 57 63 72 76 88 84 88 80 76 75 75 69 51 53 45 41 36 30 28 31 37 35
20 33 40 34 35 38 30 29 36 36 38 39 38 36 35 35 37 44 51 60 57 54 63 68 69 75 87 90 90 80 79 76 75 58 55 49 44 41 34 26 33 35 34
19 21 34 54 42 41 34 33 39 40 40 41 41 37 36 32 34 40 47 50 61 58 63 69 69 73 82 94 96 91 83 77 78 65 54 53 46 43 36 33 36 36 41
19 20 28 41 45 43 44 38 43 42 42 44 45 41 35 31 30 37 45 50 62 65 69 71 75 82 87 95 98 96 89 84 74 66 53 46 46 39 37 35 36 41 45
20 22 27 35 38 38 52 46 45 43 44 48 49 46 33 26 31 35 42 51 60 69 76 77 75 76 89 97 98 97 92 87 80 66 56 45 40 34 32 32 37 39 41
23 23 29 36 36 46 56 50 45 46 46 50 52 43 28 24 32 36 45 50 62 73 70 77 70 83 94 98 98 95 95 88 76 69 51 45 40 35 34 36 42 45 41
24 25 29 38 39 44 50 48 48 49 49 50 51 42 27 23 32 40 49 56 61 70 71 73 77 91 97 98 98 97 94 89 75 59 51 46 44 40 36 40 49 47 38
25 29 31 39 41 43 49 52 51 48 48 50 47 40 27 26 37 53 57 64 72 72 73 75 86 93 99 97 97 96 95 89 74 59 55 53 46 44 43 50 51 44 42
29 29 34 42 47 45 52 54 48 50 50 51 46 37 22 28 44 55 62 71 72 78 80 77 85 93 97 97 97 92 93 86 76 64 54 53 51 51 56 59 52 47 51
31 33 42 48 51 48 54 49 46 50 50 50 46 31 26 34 50 57 69 80 83 84 86 85 87 96 96 96 97 95 90 83 73 74 65 64 60 56 59 57 55 56 58
40 41 42 47 47 48 49 45 50 53 55 52 44 33 30 39 48 56 68 75 84 91 91 91 96 98 95 96 95 95 91 87 86 81 74 68 62 60 58 56 57 61 62
43 41 44 42 43 46 49 47 55 58 58 57 41 32 35 44 50 58 69 79 90 89 93 95 98 97 99 97 95 96 93 89 87 84 75 68 62 62 60 62 62 64 65

GFSSE_prec_cthk_090.txt.gz
RH
22 18 21 22 19 19 17 17 17 17 19 22 23 23 22 23 26 29 32 36 40 39 38 37 36 41 45 53 57 61 64 64 69 75 70 66 57 51 52 56 56 57 57
23 22 23 24 22 20 17 15 16 17 19 22 25 24 24 24 27 30 33 36 37 39 37 36 38 41 45 55 63 59 61 64 66 64 57 59 58 58 55 56 55 57 58
23 23 25 24 22 21 16 14 16 17 18 22 24 25 26 26 27 30 34 37 38 37 38 39 42 44 51 56 56 54 57 57 58 56 53 53 56 58 57 58 58 59 60
29 22 23 23 21 19 16 14 16 17 18 20 22 25 26 28 28 29 34 39 40 43 43 44 47 49 55 56 54 53 54 52 54 54 51 56 53 55 60 60 59 62 57
22 22 23 21 22 21 19 15 16 18 18 20 21 25 29 29 30 31 36 44 43 46 48 50 50 55 58 54 52 50 49 51 54 52 52 56 57 59 62 60 59 61 59
17 20 23 22 22 21 21 15 14 16 17 18 19 22 27 30 32 34 37 44 48 50 53 58 61 68 62 56 53 52 50 51 57 56 57 57 57 62 64 61 57 58 56
21 20 22 23 23 19 17 14 14 16 16 17 18 21 25 29 33 35 38 43 50 61 70 78 88 86 73 63 58 52 52 57 57 56 60 58 59 64 66 62 55 55 56
27 23 22 21 19 17 15 15 15 15 16 17 18 19 23 27 30 34 38 45 53 67 78 85 84 89 85 70 63 52 49 54 53 55 60 60 62 68 67 63 57 53 55
24 22 22 20 18 18 16 16 16 16 16 17 18 19 20 26 29 32 36 40 49 60 72 82 85 92 92 85 69 56 52 53 56 60 64 68 68 69 70 62 55 54 51
26 22 22 21 19 19 18 18 18 18 17 17 18 19 20 25 29 30 35 40 47 57 67 81 83 88 95 91 79 66 57 59 63 64 62 64 68 69 71 68 58 50 41
33 27 24 22 22 21 21 20 20 20 19 18 19 19 21 27 31 34 37 42 48 62 72 72 75 87 98 95 85 70 66 59 70 69 64 65 64 64 70 70 61 42 36
34 32 27 23 25 24 23 23 23 23 20 20 21 22 22 28 31 34 42 51 55 66 66 71 72 83 97 96 91 77 74 65 69 65 59 66 74 67 65 68 49 37 40
33 32 30 27 27 25 25 25 26 25 22 21 24 24 25 27 30 35 43 49 54 62 67 75 78 81 95 96 95 86 78 76 75 72 64 70 72 60 48 43 35 33 39
34 31 28 25 28 31 27 25 28 26 25 25 27 26 26 27 31 38 44 51 60 65 68 66 68 76 94 94 95 84 80 72 67 65 61 63 63 51 41 35 33 32 37
29 28 28 23 29 32 32 27 29 29 28 29 31 30 29 30 33 39 44 48 59 67 63 60 71 81 91 94 93 86 76 74 71 69 58 52 49 42 41 36 33 32 35
28 25 23 26 36 39 36 31 29 31 30 33 35 33 33 34 33 35 39 43 52 63 60 58 63 70 83 92 94 88 80 75 74 77 63 47 43 43 40 34 33 33 36
30 27 20 23 35 41 45 42 33 32 32 37 38 36 35 36 34 34 35 38 46 53 62 62 68 74 75 90 96 94 90 81 79 77 68 53 53 44 40 36 36 36 37
27 24 21 22 26 42 53 57 46 35 33 38 39 39 39 39 37 32 32 34 42 49 61 65 68 70 77 88 93 95 95 92 84 83 80 56 54 51 42 42 39 37 37
25 18 18 22 24 27 50 55 64 42 38 41 39 42 44 42 38 26 24 31 38 49 62 72 77 75 76 80 85 94 97 95 89 86 81 64 51 49 43 45 42 36 37
18 21 18 23 25 28 51 60 72 54 44 46 43 44 47 45 38 26 25 28 37 47 60 67 80 85 82 83 89 96 99 96 93 91 83 65 55 45 38 37 36 34 37
26 22 21 26 29 31 54 63 74 62 52 48 48 48 50 47 36 26 26 30 37 47 63 79 79 79 81 79 94 98 99 97 95 92 85 64 56 44 37 34 32 33 41
30 27 28 26 30 34 49 57 57 60 55 50 45 51 52 47 36 26 28 39 48 58 64 72 76 73 75 84 97 98 98 98 96 92 85 67 52 46 43 35 35 41 48
32 35 34 30 29 33 44 58 58 63 60 50 48 52 54 47 32 27 33 49 58 64 72 83 76 78 79 89 95 98 97 93 94 93 85 65 53 49 48 41 39 48 45
36 36 31 30 29 35 43 60 56 55 54 48 50 52 53 42 32 29 41 55 62 72 81 85 80 81 77 87 96 97 95 93 92 94 85 63 53 51 49 48 53 53 49
40 34 32 29 32 36 49 60 58 59 53 52 54 57 51 36 29 33 42 52 58 68 78 87 85 82 80 88 93 97 95 95 92 80 70 64 56 53 52 55 58 57 57
41 39 40 38 36 46 61 59 57 56 51 52 56 57 50 36 31 36 43 52 66 73 82 84 89 92 86 96 93 95 94 94 92 85 77 77 71 65 64 60 57 60 59

GFSSE_prec_cthk_093.txt.gz
RH
20 17 18 21 23 25 23 23 19 16 16 17 18 20 21 21 23 27 29 31 34 37 42 37 34 36 39 43 50 53 56 61 67 74 76 71 64 60 57 57 55 54 59
19 19 20 22 25 25 25 24 19 14 16 16 18 20 20 21 21 25 28 31 33 36 40 39 35 37 41 49 53 54 58 62 69 75 73 67 65 61 59 56 56 57 58
17 19 21 22 26 27 26 24 19 14 15 17 19 21 21 21 23 25 29 33 35 38 40 38 38 42 46 51 58 58 58 62 67 66 63 59 64 66 61 57 57 57 59
18 19 21 22 25 26 25 24 23 19 15 17 19 21 23 22 23 26 30 33 37 38 39 42 43 48 51 56 61 58 57 60 62 60 60 59 62 62 59 57 57 61 62
20 21 21 24 25 25 23 24 26 24 17 17 19 20 22 23 24 26 31 34 38 39 40 46 49 54 59 61 63 59 58 58 58 58 59 56 62 60 59 59 60 61 61
24 23 22 23 23 24 23 24 26 25 20 18 19 20 23 25 25 27 31 37 42 41 45 52 57 66 71 75 71 62 56 57 56 57 57 58 62 62 59 61 60 61 60
25 21 22 22 22 23 25 23 24 20 19 19 20 20 22 24 26 28 29 35 42 50 57 63 71 77 78 76 74 65 62 61 57 59 59 64 63 60 60 63 62 59 56
21 22 23 25 24 24 23 21 19 19 19 19 20 19 21 23 26 29 30 32 41 46 52 58 68 74 80 79 76 70 69 61 61 63 63 67 62 62 62 64 64 55 53
25 26 26 25 25 24 23 21 18 18 19 20 21 20 20 23 25 27 28 29 34 41 49 57 69 72 75 82 82 81 74 58 60 63 63 63 61 63 66 66 64 54 50
26 25 24 24 23 22 22 21 19 20 20 21 21 21 21 22 24 27 26 27 32 39 48 59 68 85 81 86 92 88 84 60 58 60 63 61 61 65 68 68 61 54 50
31 29 26 24 23 23 23 22 22 22 22 22 23 21 22 22 23 26 28 29 33 40 49 59 66 76 79 84 92 91 91 66 62 63 62 64 65 69 70 69 67 59 45
36 32 30 27 26 24 23 24 24 24 24 23 22 22 23 23 24 28 29 31 37 46 58 64 75 77 73 83 91 92 93 82 71 67 74 65 64 66 64 67 70 64 45
42 41 39 37 30 27 24 25 25 24 25 25 23 24 26 26 27 30 29 31 39 50 52 60 65 73 74 80 84 89 94 87 71 70 73 68 72 71 68 67 71 59 42
52 41 38 37 36 33 28 27 27 25 25 26 24 26 29 29 28 28 29 32 38 47 57 60 65 64 69 74 84 93 96 87 72 76 72 62 79 82 79 62 53 44 38
59 67 47 41 37 32 30 30 30 29 26 27 26 29 32 33 31 29 30 33 39 46 55 62 65 60 66 84 95 97 96 88 84 81 74 67 71 79 62 58 46 40 31
42 53 56 42 37 30 32 35 34 35 32 28 29 33 35 38 35 33 33 32 37 44 51 59 68 58 63 82 95 97 97 91 85 77 73 58 60 68 56 48 47 41 34
34 36 49 50 46 38 28 43 44 41 36 29 32 35 37 40 37 36 35 33 36 43 48 56 63 62 64 72 91 97 97 93 81 81 77 75 55 47 43 42 41 38 34
38 36 39 44 45 39 29 36 44 52 41 34 34 39 40 42 39 38 37 31 34 38 45 52 57 64 65 73 78 94 97 95 88 84 83 83 62 51 49 45 42 39 38
40 39 36 39 41 37 31 34 43 58 56 38 38 42 43 44 42 41 38 31 30 35 41 46 56 62 69 73 80 96 95 94 93 90 89 88 71 58 54 47 40 42 41
39 41 39 37 36 37 36 42 37 62 71 58 43 45 47 47 46 44 41 31 28 33 37 42 56 64 75 77 81 89 91 96 96 96 94 89 80 60 52 50 45 45 41
34 34 40 38 25 26 34 32 36 42 62 70 55 51 50 51 49 46 44 32 26 31 37 43 56 64 74 86 89 91 93 91 93 98 96 90 85 70 53 45 43 41 37
38 32 34 34 27 25 33 27 33 43 67 80 74 60 53 53 50 49 45 31 29 33 42 50 54 69 82 87 88 91 87 96 97 99 96 93 90 73 56 43 39 37 36
41 36 38 42 35 25 24 30 40 57 73 87 79 61 56 53 52 51 41 31 34 41 50 54 61 71 77 86 86 82 87 95 98 99 97 96 92 74 59 50 41 40 38
40 34 35 39 40 31 29 34 43 56 68 67 67 63 60 52 52 55 38 33 37 50 58 63 68 74 80 78 75 81 89 94 97 97 99 96 92 73 60 52 40 36 40
40 32 27 38 41 40 37 37 50 58 69 72 77 68 53 53 54 56 35 33 41 54 61 66 75 82 87 87 83 81 89 94 98 96 96 97 94 75 65 54 47 42 46
46 39 27 36 43 45 41 42 50 56 67 70 74 62 56 55 57 48 33 33 43 50 61 69 75 79 86 85 83 78 89 93 97 97 96 95 91 73 58 58 53 50 55